UAE398 OMDB-WADD

Flight info

Callsign UAE398
Flight time 8h 21m
Altitude 33000
Route IVURO M677 LALDO B505 NADSO A777 VAXIM P307 PARAR N571 GURAS/N0493F350 N571 GUNIP M630 JUNHA M635 INVUB/N0487F370 M635 UDONO
Aircraft B77W/H-SDE1E2E3FGHIJ2J3J4J5M1RWXY/LB1D1

Departure

Time 2026-04-26 05:44
Airport Dubai International Airport (OMDB)

Arrival

Time 2026-04-26 14:05
Airport Denpasar I Gusti Ngurah Rai International Airport (WADD)
Time Latitude Longitude Altitude Speed Heading
2026-04-26 04:41 25.24803 55.36439 26 ft 0 kts 211°
2026-04-26 05:24 25.24805 55.36440 26 ft 2 kts 211°
2026-04-26 05:25 25.24827 55.36455 26 ft 4 kts 211°
2026-04-26 05:25 25.24848 55.36469 26 ft 2 kts 211°
2026-04-26 05:25 25.24867 55.36485 26 ft 4 kts 239°
2026-04-26 05:25 25.24872 55.36511 26 ft 4 kts 286°
2026-04-26 05:26 25.24861 55.36536 26 ft 4 kts 302°
2026-04-26 05:26 25.24847 55.36561 26 ft 3 kts 302°
2026-04-26 05:26 25.24846 55.36563 26 ft 0 kts 302°
2026-04-26 05:30 25.24862 55.36535 26 ft 11 kts 302°
2026-04-26 05:30 25.24915 55.36440 26 ft 16 kts 301°
2026-04-26 05:30 25.24972 55.36337 26 ft 16 kts 301°
2026-04-26 05:30 25.25029 55.36236 26 ft 16 kts 302°
2026-04-26 05:31 25.25086 55.36134 26 ft 16 kts 302°
2026-04-26 05:31 25.25144 55.36032 26 ft 16 kts 302°
2026-04-26 05:31 25.25201 55.35932 26 ft 16 kts 302°
2026-04-26 05:31 25.25258 55.35831 26 ft 16 kts 302°
2026-04-26 05:32 25.25316 55.35729 26 ft 16 kts 302°
2026-04-26 05:32 25.25373 55.35627 26 ft 16 kts 302°
2026-04-26 05:32 25.25430 55.35525 26 ft 16 kts 302°
2026-04-26 05:32 25.25487 55.35423 26 ft 16 kts 302°
2026-04-26 05:33 25.25544 55.35322 26 ft 16 kts 302°
2026-04-26 05:33 25.25590 55.35240 26 ft 11 kts 302°
2026-04-26 05:33 25.25626 55.35176 26 ft 5 kts 303°
2026-04-26 05:33 25.25652 55.35154 26 ft 5 kts 340°
2026-04-26 05:34 25.25690 55.35164 26 ft 7 kts 25°
2026-04-26 05:34 25.25747 55.35200 26 ft 13 kts 30°
2026-04-26 05:34 25.25853 55.35270 26 ft 20 kts 31°
2026-04-26 05:34 25.25941 55.35330 26 ft 12 kts 34°
2026-04-26 05:35 25.25998 55.35400 26 ft 12 kts 62°
2026-04-26 05:35 25.26009 55.35493 26 ft 12 kts 98°
2026-04-26 05:35 25.25975 55.35580 26 ft 12 kts 120°
2026-04-26 05:35 25.25932 55.35661 26 ft 12 kts 121°
2026-04-26 05:36 25.25882 55.35746 26 ft 15 kts 122°
2026-04-26 05:36 25.25819 55.35858 27 ft 18 kts 122°
2026-04-26 05:36 25.25753 55.35975 27 ft 18 kts 122°
2026-04-26 05:36 25.25687 55.36092 27 ft 18 kts 122°
2026-04-26 05:37 25.25621 55.36208 27 ft 18 kts 122°
2026-04-26 05:37 25.25555 55.36325 27 ft 18 kts 122°
2026-04-26 05:37 25.25489 55.36443 27 ft 18 kts 121°
2026-04-26 05:37 25.25424 55.36560 27 ft 18 kts 122°
2026-04-26 05:38 25.25358 55.36677 26 ft 18 kts 122°
2026-04-26 05:38 25.25293 55.36792 27 ft 18 kts 122°
2026-04-26 05:38 25.25226 55.36911 27 ft 18 kts 122°
2026-04-26 05:38 25.25161 55.37026 27 ft 18 kts 122°
2026-04-26 05:39 25.25095 55.37143 28 ft 18 kts 122°
2026-04-26 05:39 25.25030 55.37261 28 ft 18 kts 122°
2026-04-26 05:39 25.24964 55.37377 28 ft 18 kts 122°
2026-04-26 05:39 25.24898 55.37495 28 ft 18 kts 122°
2026-04-26 05:40 25.24833 55.37612 27 ft 18 kts 122°
2026-04-26 05:40 25.24767 55.37728 27 ft 18 kts 122°
2026-04-26 05:40 25.24703 55.37842 27 ft 14 kts 122°
2026-04-26 05:40 25.24668 55.37907 27 ft 7 kts 113°
2026-04-26 05:41 25.24673 55.37949 27 ft 4 kts 55°
2026-04-26 05:41 25.24694 55.37971 28 ft 4 kts 39°
2026-04-26 05:41 25.24719 55.37990 28 ft 4 kts 34°
2026-04-26 05:41 25.24752 55.38015 29 ft 8 kts 34°
2026-04-26 05:42 25.24792 55.38033 30 ft 4 kts 359°
2026-04-26 05:42 25.24816 55.38015 30 ft 4 kts 306°
2026-04-26 05:42 25.24829 55.37984 30 ft 5 kts 299°
2026-04-26 05:42 25.24863 55.37926 30 ft 18 kts 302°
2026-04-26 05:43 25.25037 55.37615 31 ft 85 kts 301°
2026-04-26 05:43 25.25295 55.37146 31 ft 131 kts 301°
2026-04-26 05:43 25.26098 55.35651 145 ft 192 kts 300°
2026-04-26 05:43 25.26786 55.34357 650 ft 200 kts 300°
2026-04-26 05:44 25.27257 55.33483 1017 ft 203 kts 300°
2026-04-26 05:44 25.28274 55.31692 1643 ft 217 kts 301°
2026-04-26 05:44 25.29143 55.30285 1995 ft 227 kts 314°
2026-04-26 05:44 25.30539 55.29453 2361 ft 239 kts 352°
2026-04-26 05:45 25.32261 55.29449 2584 ft 256 kts
2026-04-26 05:45 25.34071 55.29534 3133 ft 265 kts
2026-04-26 05:45 25.35297 55.29579 3567 ft 268 kts
2026-04-26 05:45 25.37175 55.29637 4257 ft 271 kts
2026-04-26 05:46 25.39054 55.29805 4846 ft 274 kts 15°
2026-04-26 05:46 25.41097 55.31403 5559 ft 277 kts 52°
2026-04-26 05:46 25.42294 55.33098 6123 ft 283 kts 51°
2026-04-26 05:46 25.43535 55.34798 6797 ft 285 kts 51°
2026-04-26 05:47 25.44785 55.36506 7469 ft 287 kts 51°
2026-04-26 05:47 25.45601 55.37657 7861 ft 287 kts 56°
2026-04-26 05:47 25.46300 55.39719 8266 ft 293 kts 88°
2026-04-26 05:47 25.46078 55.41945 8761 ft 293 kts 101°
2026-04-26 05:48 25.45715 55.44183 9301 ft 297 kts 100°
2026-04-26 05:48 25.45383 55.46447 9924 ft 299 kts 99°
2026-04-26 05:48 25.45073 55.48741 10442 ft 306 kts 98°
2026-04-26 05:48 25.44766 55.51148 10607 ft 326 kts 98°
2026-04-26 05:49 25.44453 55.53709 10769 ft 346 kts 98°
2026-04-26 05:49 25.43790 55.59354 11155 ft 382 kts 97°
2026-04-26 05:49 25.43453 55.62273 11564 ft 392 kts 97°
2026-04-26 05:50 25.43102 55.65303 12134 ft 397 kts 97°
2026-04-26 05:50 25.42747 55.68361 12818 ft 400 kts 98°
2026-04-26 05:50 25.42280 55.71410 13415 ft 405 kts 102°
2026-04-26 05:50 25.41635 55.74411 13945 ft 409 kts 104°
2026-04-26 05:51 25.40937 55.77474 14531 ft 412 kts 104°
2026-04-26 05:51 25.40251 55.80562 15087 ft 415 kts 104°
2026-04-26 05:51 25.39577 55.83684 15599 ft 419 kts 103°
2026-04-26 05:51 25.38905 55.86835 16077 ft 423 kts 103°
2026-04-26 05:52 25.38229 55.90011 16536 ft 426 kts 103°
2026-04-26 05:52 25.37544 55.93217 16977 ft 430 kts 103°
2026-04-26 05:52 25.36854 55.96444 17401 ft 433 kts 103°
2026-04-26 05:52 25.36160 55.99696 17805 ft 436 kts 103°
2026-04-26 05:53 25.35461 56.02968 18189 ft 439 kts 103°
2026-04-26 05:53 25.34766 56.06221 18551 ft 442 kts 103°
2026-04-26 05:53 25.34057 56.09537 18899 ft 445 kts 103°
2026-04-26 05:53 25.33341 56.12873 19235 ft 447 kts 103°
2026-04-26 05:54 25.32694 56.16294 19553 ft 450 kts 99°
2026-04-26 05:54 25.32366 56.19696 19845 ft 452 kts 95°
2026-04-26 05:54 25.32114 56.23169 20118 ft 455 kts 95°
2026-04-26 05:54 25.31852 56.26665 20394 ft 457 kts 95°
2026-04-26 05:55 25.31574 56.30170 20673 ft 460 kts 95°
2026-04-26 05:55 25.31282 56.33698 20942 ft 462 kts 95°
2026-04-26 05:55 25.30983 56.37240 21206 ft 464 kts 95°
2026-04-26 05:55 25.30727 56.40798 21453 ft 466 kts 93°
2026-04-26 05:56 25.30618 56.44383 21679 ft 468 kts 91°
2026-04-26 05:56 25.30540 56.47936 21899 ft 470 kts 91°
2026-04-26 05:56 25.30451 56.51554 22130 ft 472 kts 92°
2026-04-26 05:56 25.30334 56.55183 22360 ft 474 kts 94°
2026-04-26 05:57 25.29934 56.58801 22569 ft 475 kts 101°
2026-04-26 05:57 25.29174 56.62359 22783 ft 477 kts 106°
2026-04-26 05:57 25.28103 56.65827 22987 ft 478 kts 112°
2026-04-26 05:57 25.26808 56.69216 23179 ft 480 kts 113°
2026-04-26 05:58 25.25491 56.72609 23361 ft 482 kts 113°
2026-04-26 05:58 25.24170 56.76013 23550 ft 483 kts 113°
2026-04-26 05:58 25.22868 56.79388 23738 ft 485 kts 113°
2026-04-26 05:58 25.21553 56.82820 23924 ft 486 kts 113°
2026-04-26 05:59 25.20238 56.86265 24102 ft 488 kts 113°
2026-04-26 05:59 25.18921 56.89726 24273 ft 489 kts 113°
2026-04-26 05:59 25.17602 56.93195 24439 ft 491 kts 113°
2026-04-26 05:59 25.16279 56.96674 24602 ft 492 kts 113°
2026-04-26 06:00 25.14951 57.00163 24762 ft 494 kts 113°
2026-04-26 06:00 25.13619 57.03659 24917 ft 495 kts 113°
2026-04-26 06:00 25.12298 57.07119 25066 ft 496 kts 113°
2026-04-26 06:00 25.10956 57.10634 25213 ft 498 kts 113°
2026-04-26 06:01 25.09609 57.14158 25356 ft 499 kts 113°
2026-04-26 06:01 25.08259 57.17685 25495 ft 500 kts 113°
2026-04-26 06:01 25.06902 57.21228 25631 ft 502 kts 113°
2026-04-26 06:01 25.05543 57.24774 25762 ft 503 kts 113°
2026-04-26 06:02 25.04180 57.28327 25890 ft 504 kts 113°
2026-04-26 06:02 25.02813 57.31888 26015 ft 505 kts 113°
2026-04-26 06:02 25.01440 57.35460 26136 ft 506 kts 113°
2026-04-26 06:02 25.00085 57.38986 26273 ft 507 kts 113°
2026-04-26 06:03 24.98707 57.42565 26428 ft 507 kts 113°
2026-04-26 06:03 24.97330 57.46141 26587 ft 507 kts 113°
2026-04-26 06:03 24.95950 57.49719 26717 ft 508 kts 113°
2026-04-26 06:03 24.94567 57.53303 26834 ft 509 kts 113°
2026-04-26 06:04 24.93181 57.56893 26959 ft 509 kts 113°
2026-04-26 06:04 24.91793 57.60483 27088 ft 510 kts 113°
2026-04-26 06:04 24.90403 57.64077 27223 ft 510 kts 113°
2026-04-26 06:04 24.89011 57.67673 27359 ft 510 kts 113°
2026-04-26 06:05 24.87637 57.71221 27491 ft 511 kts 113°
2026-04-26 06:05 24.86243 57.74818 27622 ft 511 kts 113°
2026-04-26 06:05 24.84846 57.78419 27752 ft 511 kts 113°
2026-04-26 06:05 24.83448 57.82016 27880 ft 512 kts 113°
2026-04-26 06:06 24.82010 57.85602 28006 ft 512 kts 115°
2026-04-26 06:06 24.80484 57.89142 28132 ft 512 kts 116°
2026-04-26 06:06 24.78915 57.92661 28262 ft 512 kts 116°
2026-04-26 06:06 24.77338 57.96171 28403 ft 512 kts 116°
2026-04-26 06:07 24.75765 57.99687 28547 ft 512 kts 116°
2026-04-26 06:07 24.74204 58.03204 28692 ft 512 kts 116°
2026-04-26 06:07 24.72651 58.06725 28837 ft 511 kts 116°
2026-04-26 06:07 24.71126 58.10198 28975 ft 511 kts 116°
2026-04-26 06:08 24.69582 58.13721 29081 ft 512 kts 116°
2026-04-26 06:08 24.66482 58.20786 29230 ft 514 kts 116°
2026-04-26 06:09 24.63365 58.27872 29393 ft 516 kts 116°
2026-04-26 06:09 24.60233 58.34975 29560 ft 517 kts 116°
2026-04-26 06:10 24.57111 58.42045 29707 ft 519 kts 116°
2026-04-26 06:10 24.53951 58.49191 29802 ft 521 kts 116°
2026-04-26 06:11 24.50783 58.56344 29986 ft 521 kts 116°
2026-04-26 06:11 24.47609 58.63502 30098 ft 522 kts 116°
2026-04-26 06:12 24.44423 58.70675 30198 ft 523 kts 116°
2026-04-26 06:12 24.41247 58.77815 30304 ft 524 kts 116°
2026-04-26 06:13 24.38050 58.85012 30397 ft 525 kts 116°
2026-04-26 06:13 24.34848 58.92223 30482 ft 526 kts 116°
2026-04-26 06:14 24.31637 58.99440 30561 ft 527 kts 116°
2026-04-26 06:14 24.28419 59.06660 30634 ft 528 kts 116°
2026-04-26 06:15 24.25214 59.13841 30700 ft 528 kts 116°
2026-04-26 06:15 24.21980 59.21073 30761 ft 529 kts 116°
2026-04-26 06:16 24.18741 59.28308 30817 ft 529 kts 116°
2026-04-26 06:16 24.15492 59.35552 30868 ft 530 kts 116°
2026-04-26 06:17 24.12239 59.42797 30916 ft 530 kts 116°
2026-04-26 06:17 24.09002 59.49993 30960 ft 531 kts 116°
2026-04-26 06:18 24.05730 59.57241 31001 ft 531 kts 116°
2026-04-26 06:18 24.02450 59.64485 31038 ft 532 kts 116°
2026-04-26 06:19 23.99166 59.71734 31072 ft 532 kts 116°
2026-04-26 06:19 23.95900 59.78932 31104 ft 532 kts 116°
2026-04-26 06:20 23.92606 59.86184 31133 ft 533 kts 116°
2026-04-26 06:20 23.89308 59.93433 31159 ft 533 kts 116°
2026-04-26 06:21 23.86005 60.00680 31184 ft 533 kts 117°
2026-04-26 06:21 23.82718 60.07882 31207 ft 533 kts 117°
2026-04-26 06:22 23.79406 60.15127 31228 ft 533 kts 117°
2026-04-26 06:22 23.76087 60.22376 31247 ft 534 kts 117°
2026-04-26 06:23 23.72765 60.29623 31265 ft 534 kts 117°
2026-04-26 06:23 23.69462 60.36816 31281 ft 534 kts 117°
2026-04-26 06:24 23.66129 60.44061 31296 ft 534 kts 117°
2026-04-26 06:24 23.62794 60.51303 31310 ft 534 kts 117°
2026-04-26 06:25 23.59454 60.58544 31320 ft 534 kts 117°
2026-04-26 06:25 23.56111 60.65780 31335 ft 535 kts 117°
2026-04-26 06:26 23.52786 60.72966 31346 ft 535 kts 117°
2026-04-26 06:26 23.49435 60.80199 31351 ft 535 kts 117°
2026-04-26 06:27 23.46078 60.87431 31356 ft 535 kts 117°
2026-04-26 06:27 23.42717 60.94665 31362 ft 535 kts 117°
2026-04-26 06:28 23.39376 61.01842 31367 ft 535 kts 117°
2026-04-26 06:28 23.36010 61.09065 31376 ft 535 kts 117°
2026-04-26 06:29 23.32639 61.16289 31381 ft 535 kts 117°
2026-04-26 06:29 23.29316 61.23535 31386 ft 535 kts 116°
2026-04-26 06:30 23.26094 61.30832 31441 ft 534 kts 116°
2026-04-26 06:30 23.22901 61.38060 31485 ft 534 kts 116°
2026-04-26 06:31 23.19662 61.45330 31491 ft 534 kts 116°
2026-04-26 06:31 23.16413 61.52595 31496 ft 534 kts 116°
2026-04-26 06:32 23.13160 61.59860 31502 ft 535 kts 116°
2026-04-26 06:32 23.09928 61.67074 31507 ft 535 kts 116°
2026-04-26 06:33 23.06668 61.74336 31517 ft 535 kts 116°
2026-04-26 06:33 23.03406 61.81597 31523 ft 535 kts 116°
2026-04-26 06:33 23.01778 61.85219 31637 ft 533 kts 116°
2026-04-26 06:34 23.00159 61.88821 31784 ft 530 kts 116°
2026-04-26 06:34 22.98543 61.92412 31925 ft 528 kts 116°
2026-04-26 06:34 22.96937 61.95979 32067 ft 526 kts 116°
2026-04-26 06:34 22.95357 61.99487 32208 ft 524 kts 116°
2026-04-26 06:35 22.93761 62.03028 32351 ft 522 kts 116°
2026-04-26 06:35 22.92167 62.06560 32494 ft 520 kts 116°
2026-04-26 06:35 22.90580 62.10075 32638 ft 518 kts 116°
2026-04-26 06:35 22.88995 62.13580 32781 ft 517 kts 116°
2026-04-26 06:36 22.87415 62.17076 32895 ft 516 kts 116°
2026-04-26 06:36 22.84249 62.24070 32994 ft 517 kts 116°
2026-04-26 06:37 22.81066 62.31090 33005 ft 520 kts 116°
2026-04-26 06:37 22.77867 62.38136 33007 ft 522 kts 116°
2026-04-26 06:38 22.74671 62.45165 33005 ft 524 kts 116°
2026-04-26 06:38 22.71420 62.52306 33003 ft 526 kts 116°
2026-04-26 06:39 22.68199 62.59372 33002 ft 527 kts 116°
2026-04-26 06:39 22.64944 62.66500 33002 ft 528 kts 116°
2026-04-26 06:40 22.61681 62.73636 33002 ft 529 kts 116°
2026-04-26 06:40 22.58431 62.80733 33002 ft 530 kts 116°
2026-04-26 06:41 22.55153 62.87882 33002 ft 531 kts 116°
2026-04-26 06:41 22.51868 62.95035 33001 ft 531 kts 116°
2026-04-26 06:42 22.48578 63.02191 33001 ft 532 kts 116°
2026-04-26 06:42 22.45282 63.09351 33001 ft 532 kts 117°
2026-04-26 06:43 22.42029 63.16473 33001 ft 532 kts 116°
2026-04-26 06:43 22.38815 63.23681 33001 ft 532 kts 116°
2026-04-26 06:44 22.35608 63.30890 33002 ft 533 kts 116°
2026-04-26 06:44 22.32384 63.38097 33001 ft 533 kts 116°
2026-04-26 06:45 22.29173 63.45248 33001 ft 533 kts 116°
2026-04-26 06:45 22.25936 63.52444 33001 ft 533 kts 116°
2026-04-26 06:46 22.22696 63.59637 33002 ft 533 kts 116°
2026-04-26 06:46 22.19450 63.66836 33001 ft 533 kts 116°
2026-04-26 06:47 22.16201 63.74030 33001 ft 533 kts 116°
2026-04-26 06:47 22.12950 63.81219 33001 ft 533 kts 116°
2026-04-26 06:48 22.09696 63.88404 33001 ft 533 kts 116°
2026-04-26 06:48 22.06459 63.95541 33001 ft 533 kts 116°
2026-04-26 06:49 22.03197 64.02723 33001 ft 533 kts 116°
2026-04-26 06:49 21.99934 64.09899 33001 ft 533 kts 116°
2026-04-26 06:50 21.96665 64.17076 33001 ft 533 kts 116°
2026-04-26 06:50 21.93394 64.24248 33001 ft 533 kts 116°
2026-04-26 06:51 21.90142 64.31368 33001 ft 533 kts 116°
2026-04-26 06:51 21.85224 64.42117 33001 ft 533 kts 116°
2026-04-26 06:52 21.81941 64.49278 33001 ft 533 kts 116°
2026-04-26 06:52 21.78655 64.56438 33001 ft 533 kts 116°
2026-04-26 06:53 21.75390 64.63542 33001 ft 533 kts 116°
2026-04-26 06:53 21.72097 64.70695 33001 ft 533 kts 116°
2026-04-26 06:54 21.68802 64.77845 33001 ft 534 kts 116°
2026-04-26 06:54 21.65504 64.84990 33001 ft 534 kts 116°
2026-04-26 06:55 21.62225 64.92085 33001 ft 534 kts 116°
2026-04-26 06:55 21.58921 64.99224 33001 ft 534 kts 117°
2026-04-26 06:56 21.55614 65.06360 33001 ft 534 kts 117°
2026-04-26 06:56 21.52304 65.13492 33001 ft 534 kts 117°
2026-04-26 06:57 21.49012 65.20576 33001 ft 534 kts 117°
2026-04-26 06:57 21.45696 65.27700 33001 ft 534 kts 117°
2026-04-26 06:58 21.42375 65.34827 33001 ft 534 kts 117°
2026-04-26 06:58 21.39053 65.41947 33001 ft 534 kts 117°
2026-04-26 06:59 21.35727 65.49064 33001 ft 534 kts 117°
2026-04-26 06:59 21.32421 65.56130 33001 ft 534 kts 117°
2026-04-26 07:00 21.29091 65.63239 33001 ft 534 kts 117°
2026-04-26 07:00 21.25755 65.70350 33001 ft 534 kts 117°
2026-04-26 07:01 21.22416 65.77457 33001 ft 534 kts 117°
2026-04-26 07:01 21.19099 65.84510 33001 ft 534 kts 117°
2026-04-26 07:02 21.15756 65.91608 33001 ft 534 kts 117°
2026-04-26 07:02 21.12410 65.98705 33001 ft 534 kts 117°
2026-04-26 07:03 21.09107 66.05824 33001 ft 534 kts 116°
2026-04-26 07:03 21.05897 66.12929 33002 ft 534 kts 116°
2026-04-26 07:04 21.02666 66.20082 33001 ft 534 kts 116°
2026-04-26 07:04 20.99419 66.27228 33001 ft 534 kts 116°
2026-04-26 07:05 20.96165 66.34363 33001 ft 534 kts 116°
2026-04-26 07:05 20.92927 66.41449 33001 ft 534 kts 116°
2026-04-26 07:06 20.89664 66.48581 33001 ft 534 kts 116°
2026-04-26 07:06 20.86400 66.55710 33001 ft 534 kts 116°
2026-04-26 07:07 20.83132 66.62836 33001 ft 534 kts 116°
2026-04-26 07:07 20.79862 66.69960 33001 ft 534 kts 116°
2026-04-26 07:08 20.76612 66.77029 33001 ft 534 kts 116°
2026-04-26 07:08 20.73334 66.84148 33001 ft 534 kts 116°
2026-04-26 07:09 20.70055 66.91263 33001 ft 534 kts 116°
2026-04-26 07:09 20.66773 66.98373 33001 ft 534 kts 116°
2026-04-26 07:11 20.58576 67.16091 33001 ft 534 kts 116°
2026-04-26 07:11 20.55284 67.23189 33001 ft 534 kts 116°
2026-04-26 07:12 20.51989 67.30286 33001 ft 534 kts 116°
2026-04-26 07:12 20.48690 67.37383 33001 ft 534 kts 116°
2026-04-26 07:13 20.45410 67.44427 33001 ft 534 kts 116°
2026-04-26 07:13 20.42107 67.51513 33001 ft 534 kts 116°
2026-04-26 07:14 20.38799 67.58601 33001 ft 534 kts 117°
2026-04-26 07:14 20.35488 67.65686 33001 ft 534 kts 117°
2026-04-26 07:15 20.32176 67.72765 33001 ft 534 kts 117°
2026-04-26 07:15 20.28883 67.79793 33001 ft 534 kts 117°
2026-04-26 07:16 20.25564 67.86867 33001 ft 534 kts 117°
2026-04-26 07:16 20.22243 67.93937 33001 ft 534 kts 117°
2026-04-26 07:17 20.18920 68.01001 33001 ft 534 kts 117°
2026-04-26 07:17 20.15591 68.08070 33001 ft 534 kts 117°
2026-04-26 07:18 20.12259 68.15136 33001 ft 534 kts 117°
2026-04-26 07:18 20.08948 68.22148 33001 ft 534 kts 117°
2026-04-26 07:19 20.05616 68.29198 33001 ft 534 kts 117°
2026-04-26 07:19 20.02277 68.36251 33001 ft 534 kts 117°
2026-04-26 07:20 19.98935 68.43304 33001 ft 534 kts 117°
2026-04-26 07:20 19.95612 68.50305 33001 ft 534 kts 117°
2026-04-26 07:21 19.92264 68.57352 33001 ft 534 kts 117°
2026-04-26 07:21 19.88913 68.64396 33001 ft 534 kts 117°
2026-04-26 07:22 19.85562 68.71433 33001 ft 534 kts 117°
2026-04-26 07:22 19.82205 68.78471 33001 ft 534 kts 117°
2026-04-26 07:23 19.78847 68.85505 33001 ft 534 kts 117°
2026-04-26 07:23 19.75509 68.92486 33001 ft 534 kts 117°
2026-04-26 07:24 19.72145 68.99514 33001 ft 534 kts 117°
2026-04-26 07:24 19.68779 69.06539 33001 ft 534 kts 117°
2026-04-26 07:25 19.65408 69.13564 33001 ft 534 kts 117°
2026-04-26 07:25 19.62037 69.20581 33001 ft 534 kts 117°
2026-04-26 07:26 19.58685 69.27551 33001 ft 534 kts 117°
2026-04-26 07:26 19.55308 69.34567 33001 ft 534 kts 117°
2026-04-26 07:27 19.52006 69.41618 33001 ft 534 kts 116°
2026-04-26 07:27 19.48785 69.48712 33002 ft 534 kts 116°
2026-04-26 07:28 19.45562 69.55803 33001 ft 534 kts 116°
2026-04-26 07:28 19.42319 69.62884 33001 ft 534 kts 116°
2026-04-26 07:29 19.39088 69.69910 33001 ft 534 kts 116°
2026-04-26 07:29 19.35831 69.76982 33002 ft 534 kts 116°
2026-04-26 07:30 19.32573 69.84048 33001 ft 534 kts 116°
2026-04-26 07:30 19.29313 69.91115 33001 ft 534 kts 116°
2026-04-26 07:31 19.26073 69.98129 33001 ft 534 kts 116°
2026-04-26 07:31 19.22808 70.05187 33001 ft 534 kts 116°
2026-04-26 07:32 19.19539 70.12247 33001 ft 534 kts 116°
2026-04-26 07:32 19.16267 70.19303 33001 ft 534 kts 116°
2026-04-26 07:33 19.12993 70.26355 33001 ft 534 kts 116°
2026-04-26 07:33 19.09738 70.33358 33001 ft 534 kts 116°
2026-04-26 07:34 19.06460 70.40402 33001 ft 534 kts 116°
2026-04-26 07:34 19.03176 70.47450 33001 ft 534 kts 116°
2026-04-26 07:35 19.00426 70.53346 33001 ft 534 kts 116°
2026-04-26 07:35 18.97139 70.60384 33001 ft 534 kts 116°
2026-04-26 07:36 18.93850 70.67420 33001 ft 534 kts 116°
2026-04-26 07:36 18.90560 70.74450 33001 ft 534 kts 116°
2026-04-26 07:37 18.87263 70.81484 33001 ft 534 kts 116°
2026-04-26 07:37 18.83985 70.88471 33001 ft 534 kts 116°
2026-04-26 07:38 18.80684 70.95498 33001 ft 534 kts 116°
2026-04-26 07:38 18.77381 71.02519 33001 ft 534 kts 116°
2026-04-26 07:39 18.74075 71.09540 33001 ft 534 kts 116°
2026-04-26 07:39 18.70790 71.16509 33001 ft 534 kts 116°
2026-04-26 07:40 18.67479 71.23524 33001 ft 534 kts 117°
2026-04-26 07:40 18.64164 71.30538 33001 ft 534 kts 117°
2026-04-26 07:41 18.60848 71.37548 33001 ft 534 kts 117°
2026-04-26 07:41 18.57550 71.44510 33001 ft 534 kts 117°
2026-04-26 07:42 18.54229 71.51514 33001 ft 534 kts 117°
2026-04-26 07:42 18.50904 71.58517 33001 ft 534 kts 117°
2026-04-26 07:43 18.47577 71.65517 33001 ft 534 kts 117°
2026-04-26 07:43 18.44248 71.72513 33001 ft 534 kts 117°
2026-04-26 07:44 18.40916 71.79506 33001 ft 534 kts 117°
2026-04-26 07:44 18.37604 71.86450 33001 ft 534 kts 117°
2026-04-26 07:45 18.34266 71.93440 33001 ft 534 kts 117°
2026-04-26 07:45 18.30927 72.00425 33001 ft 534 kts 117°
2026-04-26 07:46 18.27585 72.07409 33001 ft 534 kts 117°
2026-04-26 07:46 18.24240 72.14390 33001 ft 534 kts 117°
2026-04-26 07:47 18.20914 72.21323 33001 ft 534 kts 117°
2026-04-26 07:47 18.17564 72.28298 33001 ft 534 kts 117°
2026-04-26 07:48 18.14213 72.35269 33001 ft 534 kts 117°
2026-04-26 07:48 18.10857 72.42241 33001 ft 534 kts 117°
2026-04-26 07:49 18.07499 72.49210 33001 ft 534 kts 117°
2026-04-26 07:49 18.04161 72.56129 33001 ft 534 kts 117°
2026-04-26 07:50 17.99117 72.66571 33001 ft 534 kts 117°
2026-04-26 07:50 17.95750 72.73531 33001 ft 534 kts 117°
2026-04-26 07:51 17.92380 72.80489 33001 ft 534 kts 117°
2026-04-26 07:51 17.89009 72.87442 33001 ft 534 kts 117°
2026-04-26 07:52 17.85635 72.94393 33001 ft 534 kts 117°
2026-04-26 07:52 17.82282 73.01295 33001 ft 534 kts 117°
2026-04-26 07:53 17.78904 73.08241 33001 ft 534 kts 117°
2026-04-26 07:53 17.75523 73.15184 33003 ft 534 kts 117°
2026-04-26 07:54 17.72140 73.22126 33000 ft 535 kts 117°
2026-04-26 07:54 17.68767 73.29021 33001 ft 535 kts 117°
2026-04-26 07:55 17.65369 73.35955 33002 ft 535 kts 117°
2026-04-26 07:55 17.61971 73.42885 33003 ft 535 kts 117°
2026-04-26 07:56 17.58569 73.49818 33001 ft 535 kts 117°
2026-04-26 07:56 17.55188 73.56702 33002 ft 535 kts 117°
2026-04-26 07:57 17.51783 73.63625 33000 ft 535 kts 117°
2026-04-26 07:57 17.48375 73.70549 33002 ft 535 kts 117°
2026-04-26 07:58 17.44965 73.77470 33001 ft 535 kts 117°
2026-04-26 07:58 17.41552 73.84387 33003 ft 535 kts 117°
2026-04-26 07:59 17.38159 73.91258 33000 ft 535 kts 117°
2026-04-26 07:59 17.34742 73.98170 33003 ft 535 kts 117°
2026-04-26 08:00 17.31323 74.05079 33000 ft 535 kts 117°
2026-04-26 08:00 17.27900 74.11989 33003 ft 535 kts 117°
2026-04-26 08:01 17.24476 74.18895 33001 ft 535 kts 117°
2026-04-26 08:01 17.21071 74.25754 33002 ft 535 kts 117°
2026-04-26 08:02 17.17645 74.32660 33000 ft 535 kts 117°
2026-04-26 08:02 17.14221 74.39565 33003 ft 535 kts 117°
2026-04-26 08:03 17.10797 74.46465 33001 ft 535 kts 117°
2026-04-26 08:03 17.07370 74.53364 33002 ft 535 kts 117°
2026-04-26 08:04 17.03964 74.60213 33001 ft 535 kts 117°
2026-04-26 08:04 17.00530 74.67110 33001 ft 535 kts 117°
2026-04-26 08:05 16.97095 74.74000 33002 ft 535 kts 118°
2026-04-26 08:05 16.93658 74.80889 33000 ft 535 kts 118°
2026-04-26 08:06 16.90218 74.87778 33001 ft 535 kts 118°
2026-04-26 08:06 16.86801 74.94614 33002 ft 535 kts 118°
2026-04-26 08:07 16.83357 75.01494 33000 ft 535 kts 118°
2026-04-26 08:07 16.79910 75.08375 33001 ft 535 kts 118°
2026-04-26 08:08 16.76462 75.15251 33001 ft 535 kts 118°
2026-04-26 08:08 16.73034 75.22079 33001 ft 535 kts 118°
2026-04-26 08:09 16.69582 75.28950 33001 ft 535 kts 118°
2026-04-26 08:09 16.66128 75.35818 33002 ft 535 kts 118°
2026-04-26 08:10 16.62672 75.42683 33001 ft 535 kts 118°
2026-04-26 08:10 16.59241 75.49567 33000 ft 535 kts 116°
2026-04-26 08:11 16.56032 75.56502 33002 ft 535 kts 115°
2026-04-26 08:11 16.52839 75.63506 33001 ft 535 kts 116°
2026-04-26 08:12 16.49611 75.70492 33001 ft 535 kts 116°
2026-04-26 08:12 16.46362 75.77466 33000 ft 535 kts 116°
2026-04-26 08:13 16.43111 75.84438 33001 ft 535 kts 116°
2026-04-26 08:13 16.39883 75.91362 33002 ft 535 kts 116°
2026-04-26 08:14 16.36633 75.98328 33001 ft 535 kts 116°
2026-04-26 08:14 16.33369 76.05293 33001 ft 535 kts 116°
2026-04-26 08:15 16.30090 76.12246 33002 ft 535 kts 116°
2026-04-26 08:15 16.26833 76.19148 33001 ft 535 kts 116°
2026-04-26 08:16 16.23553 76.26099 33002 ft 535 kts 116°
2026-04-26 08:16 16.20272 76.33048 33003 ft 535 kts 116°
2026-04-26 08:17 16.16991 76.39991 33001 ft 535 kts 116°
2026-04-26 08:17 16.13704 76.46937 33000 ft 535 kts 116°
2026-04-26 08:18 16.10438 76.53832 33001 ft 535 kts 116°
2026-04-26 08:18 16.07147 76.60772 33001 ft 535 kts 116°
2026-04-26 08:19 16.03855 76.67710 33001 ft 535 kts 116°
2026-04-26 08:19 16.00560 76.74645 33002 ft 535 kts 116°
2026-04-26 08:20 15.97264 76.81577 33001 ft 535 kts 116°
2026-04-26 08:20 15.93986 76.88462 33001 ft 535 kts 116°
2026-04-26 08:21 15.90685 76.95390 33001 ft 535 kts 116°
2026-04-26 08:21 15.87381 77.02317 33001 ft 535 kts 116°
2026-04-26 08:22 15.84075 77.09242 33000 ft 535 kts 116°
2026-04-26 08:22 15.80766 77.16168 33002 ft 535 kts 116°
2026-04-26 08:23 15.77456 77.23087 33001 ft 535 kts 116°
2026-04-26 08:23 15.74145 77.30004 33002 ft 535 kts 116°
2026-04-26 08:24 15.70853 77.36876 33001 ft 535 kts 116°
2026-04-26 08:24 15.67550 77.43798 33001 ft 535 kts 116°
2026-04-26 08:25 15.64253 77.50719 33001 ft 535 kts 116°
2026-04-26 08:25 15.60953 77.57634 33001 ft 535 kts 116°
2026-04-26 08:26 15.57647 77.64553 33002 ft 535 kts 116°
2026-04-26 08:26 15.54363 77.71419 33001 ft 535 kts 116°
2026-04-26 08:27 15.51055 77.78327 33002 ft 535 kts 116°
2026-04-26 08:27 15.47743 77.85236 33001 ft 535 kts 116°
2026-04-26 08:28 15.44428 77.92148 33002 ft 535 kts 116°
2026-04-26 08:28 15.41113 77.99051 33001 ft 535 kts 117°
2026-04-26 08:29 15.37798 78.05953 33001 ft 535 kts 117°
2026-04-26 08:29 15.34473 78.12848 33001 ft 535 kts 117°
2026-04-26 08:30 15.31110 78.19731 33002 ft 535 kts 117°
2026-04-26 08:30 15.27744 78.26595 33000 ft 535 kts 117°
2026-04-26 08:31 15.24375 78.33472 33002 ft 535 kts 117°
2026-04-26 08:31 15.21032 78.40298 33000 ft 535 kts 117°
2026-04-26 08:32 15.17665 78.47169 33002 ft 535 kts 117°
2026-04-26 08:32 15.14296 78.54037 33001 ft 535 kts 117°
2026-04-26 08:33 15.10925 78.60901 33002 ft 535 kts 117°
2026-04-26 08:33 15.07574 78.67720 33001 ft 535 kts 117°
2026-04-26 08:34 15.04200 78.74579 33001 ft 535 kts 117°
2026-04-26 08:34 15.00824 78.81435 33001 ft 535 kts 117°
2026-04-26 08:35 14.97442 78.88295 32999 ft 535 kts 117°
2026-04-26 08:35 14.94086 78.95099 33002 ft 535 kts 117°
2026-04-26 08:36 14.90701 79.01954 33002 ft 535 kts 117°
2026-04-26 08:36 14.87317 79.08802 33001 ft 535 kts 117°
2026-04-26 08:37 14.83930 79.15647 33003 ft 535 kts 117°
2026-04-26 08:37 14.80563 79.22447 33001 ft 535 kts 117°
2026-04-26 08:38 14.77173 79.29289 33001 ft 535 kts 117°
2026-04-26 08:38 14.73781 79.36127 33001 ft 535 kts 117°
2026-04-26 08:39 14.70385 79.42966 33001 ft 535 kts 117°
2026-04-26 08:39 14.66991 79.49797 33002 ft 535 kts 117°
2026-04-26 08:40 14.63593 79.56629 33001 ft 535 kts 117°
2026-04-26 08:40 14.60214 79.63417 33002 ft 535 kts 117°
2026-04-26 08:41 14.56812 79.70244 33001 ft 535 kts 117°
2026-04-26 08:41 14.53406 79.77073 33001 ft 535 kts 117°
2026-04-26 08:42 14.50021 79.83855 33002 ft 535 kts 117°
2026-04-26 08:42 14.46613 79.90677 33002 ft 535 kts 117°
2026-04-26 08:43 14.43204 79.97496 33001 ft 535 kts 117°
2026-04-26 08:43 14.39791 80.04315 33001 ft 535 kts 117°
2026-04-26 08:44 14.36377 80.11131 33001 ft 535 kts 117°
2026-04-26 08:44 14.32983 80.17900 33002 ft 535 kts 117°
2026-04-26 08:45 14.29564 80.24715 33001 ft 535 kts 117°
2026-04-26 08:45 14.26145 80.31523 33002 ft 535 kts 117°
2026-04-26 08:46 14.22724 80.38328 33001 ft 535 kts 117°
2026-04-26 08:46 14.19325 80.45085 33001 ft 535 kts 117°
2026-04-26 08:47 14.15898 80.51891 33001 ft 535 kts 117°
2026-04-26 08:47 14.12472 80.58690 33001 ft 535 kts 117°
2026-04-26 08:48 14.09043 80.65489 33001 ft 535 kts 117°
2026-04-26 08:48 14.05635 80.72242 33001 ft 535 kts 117°
2026-04-26 08:49 14.02204 80.79035 33001 ft 535 kts 117°
2026-04-26 08:49 13.98783 80.85835 33001 ft 535 kts 117°
2026-04-26 08:50 13.95454 80.92687 33001 ft 535 kts 116°
2026-04-26 08:50 13.92150 80.99543 33002 ft 535 kts 116°
2026-04-26 08:51 13.87163 81.09818 33001 ft 535 kts 117°
2026-04-26 08:52 13.83850 81.16616 33001 ft 535 kts 117°
2026-04-26 08:52 13.80516 81.23454 33001 ft 535 kts 117°
2026-04-26 08:53 13.77181 81.30292 33001 ft 535 kts 117°
2026-04-26 08:53 13.73842 81.37133 33001 ft 535 kts 117°
2026-04-26 08:54 13.70506 81.43963 33001 ft 535 kts 117°
2026-04-26 08:54 13.67187 81.50754 33001 ft 535 kts 117°
2026-04-26 08:55 13.63851 81.57586 33001 ft 535 kts 117°
2026-04-26 08:55 13.60513 81.64421 33001 ft 535 kts 117°
2026-04-26 08:56 13.57174 81.71251 33001 ft 535 kts 117°
2026-04-26 08:56 13.53833 81.78079 33001 ft 535 kts 117°
2026-04-26 08:57 13.50490 81.84904 33001 ft 535 kts 117°
2026-04-26 08:57 13.47144 81.91730 33001 ft 535 kts 117°
2026-04-26 08:58 13.43798 81.98549 33001 ft 535 kts 117°
2026-04-26 08:58 13.40472 82.05325 33001 ft 535 kts 117°
2026-04-26 08:59 13.37120 82.12145 33001 ft 535 kts 117°
2026-04-26 08:59 13.33768 82.18961 33001 ft 535 kts 117°
2026-04-26 09:00 13.30414 82.25776 33001 ft 535 kts 117°
2026-04-26 09:00 13.27058 82.32588 33001 ft 535 kts 117°
2026-04-26 09:01 13.23699 82.39400 33001 ft 535 kts 117°
2026-04-26 09:01 13.20341 82.46206 33001 ft 535 kts 117°
2026-04-26 09:02 13.16979 82.53014 33002 ft 535 kts 117°
2026-04-26 09:02 13.13616 82.59820 33001 ft 535 kts 117°
2026-04-26 09:03 13.10275 82.66575 33001 ft 535 kts 117°
2026-04-26 09:03 13.06908 82.73377 33001 ft 535 kts 117°
2026-04-26 09:04 13.03539 82.80178 33001 ft 535 kts 117°
2026-04-26 09:04 13.00170 82.86972 33001 ft 535 kts 117°
2026-04-26 09:05 12.96797 82.93770 33001 ft 535 kts 117°
2026-04-26 09:05 12.93424 83.00562 33001 ft 535 kts 117°
2026-04-26 09:06 12.90072 83.07308 33001 ft 535 kts 117°
2026-04-26 09:06 12.86695 83.14097 33001 ft 535 kts 117°
2026-04-26 09:07 12.83317 83.20885 33001 ft 535 kts 117°
2026-04-26 09:07 12.79937 83.27671 33001 ft 535 kts 117°
2026-04-26 09:08 12.76553 83.34458 33006 ft 535 kts 117°
2026-04-26 09:08 12.73168 83.41244 33011 ft 535 kts 117°
2026-04-26 09:09 12.69779 83.48033 33017 ft 535 kts 117°
2026-04-26 09:09 12.66412 83.54773 33024 ft 535 kts 117°
2026-04-26 09:10 12.63071 83.61588 33036 ft 535 kts 116°
2026-04-26 09:10 12.59799 83.68435 33048 ft 535 kts 116°
2026-04-26 09:11 12.56529 83.75280 33060 ft 535 kts 116°
2026-04-26 09:11 12.53245 83.82118 33072 ft 535 kts 116°
2026-04-26 09:12 12.49981 83.88890 33223 ft 532 kts 116°
2026-04-26 09:12 12.48344 83.92283 33342 ft 530 kts 116°
2026-04-26 09:12 12.46713 83.95662 33461 ft 529 kts 116°
2026-04-26 09:12 12.45087 83.99031 33580 ft 527 kts 116°
2026-04-26 09:13 12.43468 84.02386 33699 ft 525 kts 116°
2026-04-26 09:13 12.41852 84.05733 33819 ft 524 kts 116°
2026-04-26 09:13 12.40239 84.09072 33939 ft 523 kts 116°
2026-04-26 09:13 12.38651 84.12357 34057 ft 522 kts 116°
2026-04-26 09:14 12.37047 84.15677 34178 ft 520 kts 116°
2026-04-26 09:14 12.35444 84.18992 34298 ft 519 kts 116°
2026-04-26 09:14 12.33844 84.22298 34419 ft 518 kts 116°
2026-04-26 09:14 12.32247 84.25599 34539 ft 517 kts 116°
2026-04-26 09:15 12.30652 84.28894 34660 ft 516 kts 116°
2026-04-26 09:15 12.29059 84.32182 34781 ft 516 kts 116°
2026-04-26 09:15 12.27468 84.35467 34886 ft 515 kts 116°
2026-04-26 09:16 12.24283 84.42038 34991 ft 516 kts 116°
2026-04-26 09:16 12.21104 84.48590 35004 ft 519 kts 116°
2026-04-26 09:17 12.17887 84.55217 35007 ft 522 kts 116°
2026-04-26 09:17 12.14655 84.61871 35005 ft 524 kts 116°
2026-04-26 09:18 12.11407 84.68551 35003 ft 526 kts 116°
2026-04-26 09:18 12.08148 84.75250 35002 ft 527 kts 116°
2026-04-26 09:19 12.04902 84.81917 35002 ft 528 kts 117°
2026-04-26 09:19 12.01627 84.88639 35002 ft 529 kts 117°
2026-04-26 09:20 11.98343 84.95374 35002 ft 530 kts 117°
2026-04-26 09:20 11.95610 85.00974 35002 ft 530 kts 117°
2026-04-26 09:21 11.92318 85.07718 35002 ft 531 kts 117°
2026-04-26 09:21 11.88485 85.15562 35001 ft 531 kts 117°
2026-04-26 09:22 11.85182 85.22316 35001 ft 532 kts 117°
2026-04-26 09:22 11.81876 85.29072 35001 ft 532 kts 117°
2026-04-26 09:23 11.79127 85.34686 35001 ft 532 kts 117°
2026-04-26 09:23 11.75816 85.41443 35001 ft 532 kts 117°
2026-04-26 09:24 11.72500 85.48205 35001 ft 533 kts 117°
2026-04-26 09:24 11.69206 85.54916 35001 ft 533 kts 117°
2026-04-26 09:25 11.65887 85.61676 35001 ft 533 kts 117°
2026-04-26 09:25 11.62567 85.68431 35001 ft 533 kts 117°
2026-04-26 09:26 11.59243 85.75190 35002 ft 533 kts 117°
2026-04-26 09:26 11.55379 85.83041 35001 ft 533 kts 117°
2026-04-26 09:27 11.52614 85.88656 35001 ft 533 kts 117°
2026-04-26 09:27 11.49285 85.95412 35001 ft 533 kts 117°
2026-04-26 09:28 11.45954 86.02165 35001 ft 533 kts 117°
2026-04-26 09:28 11.42621 86.08920 35001 ft 533 kts 117°
2026-04-26 09:29 11.39286 86.15672 35001 ft 533 kts 117°
2026-04-26 09:29 11.35974 86.22374 35001 ft 533 kts 117°
2026-04-26 09:30 11.32636 86.29125 35001 ft 533 kts 117°
2026-04-26 09:30 11.29296 86.35872 35001 ft 533 kts 117°
2026-04-26 09:31 11.25954 86.42620 35001 ft 533 kts 117°
2026-04-26 09:31 11.22612 86.49364 35001 ft 533 kts 117°
2026-04-26 09:32 11.19290 86.56064 35001 ft 533 kts 117°
2026-04-26 09:32 11.15946 86.62803 35001 ft 533 kts 117°
2026-04-26 09:33 11.12597 86.69548 35001 ft 533 kts 117°
2026-04-26 09:33 11.09247 86.76289 35001 ft 533 kts 117°
2026-04-26 09:34 11.05896 86.83027 35001 ft 533 kts 117°
2026-04-26 09:34 11.02566 86.89721 35001 ft 533 kts 117°
2026-04-26 09:35 10.99212 86.96455 35001 ft 534 kts 117°
2026-04-26 09:35 10.95858 87.03188 35001 ft 534 kts 117°
2026-04-26 09:36 10.92500 87.09922 35001 ft 534 kts 117°
2026-04-26 09:36 10.89140 87.16656 35001 ft 534 kts 117°
2026-04-26 09:37 10.85803 87.23341 35001 ft 534 kts 117°
2026-04-26 09:37 10.82440 87.30072 35001 ft 534 kts 117°
2026-04-26 09:38 10.79077 87.36800 35001 ft 534 kts 117°
2026-04-26 09:38 10.75713 87.43525 35001 ft 534 kts 117°
2026-04-26 09:39 10.72345 87.50253 35001 ft 534 kts 117°
2026-04-26 09:39 10.69000 87.56933 35001 ft 534 kts 117°
2026-04-26 09:40 10.65630 87.63655 35001 ft 534 kts 117°
2026-04-26 09:40 10.62259 87.70377 35001 ft 534 kts 117°
2026-04-26 09:41 10.58888 87.77095 35001 ft 534 kts 117°
2026-04-26 09:41 10.55535 87.83772 35001 ft 534 kts 117°
2026-04-26 09:42 10.52159 87.90491 35001 ft 534 kts 117°
2026-04-26 09:42 10.48782 87.97207 35002 ft 534 kts 117°
2026-04-26 09:43 10.45403 88.03923 35001 ft 534 kts 117°
2026-04-26 09:43 10.42024 88.10635 35001 ft 534 kts 117°
2026-04-26 09:44 10.38665 88.17303 35001 ft 534 kts 117°
2026-04-26 09:44 10.35283 88.24013 35001 ft 534 kts 117°
2026-04-26 09:45 10.31897 88.30725 35001 ft 534 kts 117°
2026-04-26 09:45 10.28511 88.37435 35001 ft 534 kts 117°
2026-04-26 09:46 10.25124 88.44144 35001 ft 534 kts 117°
2026-04-26 09:46 10.21759 88.50805 35001 ft 534 kts 117°
2026-04-26 09:47 10.18442 88.57548 35001 ft 534 kts 115°
2026-04-26 09:47 10.15335 88.64395 35002 ft 534 kts 115°
2026-04-26 09:48 10.12257 88.71253 35001 ft 534 kts 115°
2026-04-26 09:48 10.09165 88.78048 35001 ft 534 kts 115°
2026-04-26 09:49 10.06028 88.84881 35001 ft 534 kts 115°
2026-04-26 09:49 10.02887 88.91708 35001 ft 534 kts 115°
2026-04-26 09:50 9.99745 88.98537 35001 ft 534 kts 115°
2026-04-26 09:50 9.96604 89.05365 35001 ft 534 kts 115°
2026-04-26 09:51 9.93484 89.12144 35001 ft 534 kts 115°
2026-04-26 09:51 9.90340 89.18971 35001 ft 534 kts 115°
2026-04-26 09:52 9.87195 89.25796 35001 ft 534 kts 115°
2026-04-26 09:52 9.82474 89.36032 35001 ft 534 kts 115°
2026-04-26 09:53 9.79347 89.42806 35001 ft 534 kts 115°
2026-04-26 09:53 9.76196 89.49630 35001 ft 534 kts 115°
2026-04-26 09:54 9.73045 89.56448 35001 ft 534 kts 115°
2026-04-26 09:54 9.69892 89.63266 35001 ft 534 kts 115°
2026-04-26 09:55 9.66737 89.70083 35001 ft 534 kts 115°
2026-04-26 09:55 9.63580 89.76901 35001 ft 534 kts 115°
2026-04-26 09:56 9.60444 89.83672 35001 ft 534 kts 115°
2026-04-26 09:56 9.57285 89.90487 35001 ft 534 kts 115°
2026-04-26 09:57 9.54124 89.97301 35001 ft 534 kts 115°
2026-04-26 09:57 9.50962 90.04113 35001 ft 534 kts 115°
2026-04-26 09:58 9.47820 90.10878 35001 ft 534 kts 115°
2026-04-26 09:58 9.44664 90.17671 35012 ft 532 kts 115°
2026-04-26 09:59 9.41508 90.24458 35000 ft 533 kts 115°
2026-04-26 09:59 9.38349 90.31250 35002 ft 533 kts 115°
2026-04-26 10:00 9.35186 90.38044 35001 ft 534 kts 115°
2026-04-26 10:00 9.32040 90.44797 35001 ft 534 kts 115°
2026-04-26 10:01 9.28872 90.51594 35002 ft 534 kts 115°
2026-04-26 10:01 9.25704 90.58389 35001 ft 534 kts 115°
2026-04-26 10:02 9.22531 90.65189 35001 ft 534 kts 115°
2026-04-26 10:02 9.19358 90.71985 35001 ft 534 kts 115°
2026-04-26 10:03 9.16203 90.78739 35001 ft 534 kts 115°
2026-04-26 10:03 9.13026 90.85537 35001 ft 534 kts 115°
2026-04-26 10:04 9.09847 90.92334 35001 ft 534 kts 115°
2026-04-26 10:04 9.06668 90.99128 35001 ft 534 kts 115°
2026-04-26 10:05 9.03486 91.05924 35001 ft 534 kts 115°
2026-04-26 10:05 9.00323 91.12676 35001 ft 535 kts 115°
2026-04-26 10:06 8.97141 91.19464 35001 ft 535 kts 115°
2026-04-26 10:06 8.93952 91.26263 35001 ft 535 kts 115°
2026-04-26 10:07 8.90764 91.33055 35001 ft 535 kts 115°
2026-04-26 10:07 8.87576 91.39846 35001 ft 535 kts 116°
2026-04-26 10:08 8.84386 91.46636 35001 ft 535 kts 116°
2026-04-26 10:08 8.81195 91.53424 35001 ft 535 kts 116°
2026-04-26 10:09 8.78001 91.60217 35001 ft 535 kts 116°
2026-04-26 10:09 8.74807 91.67003 35001 ft 535 kts 116°
2026-04-26 10:10 8.71611 91.73792 35001 ft 535 kts 116°
2026-04-26 10:10 8.68414 91.80579 35001 ft 535 kts 116°
2026-04-26 10:11 8.65216 91.87364 35001 ft 535 kts 116°
2026-04-26 10:11 8.62019 91.94147 35001 ft 535 kts 116°
2026-04-26 10:12 8.58843 92.00890 35001 ft 535 kts 115°
2026-04-26 10:12 8.55774 92.07731 35001 ft 535 kts 114°
2026-04-26 10:13 8.52767 92.14608 35001 ft 535 kts 114°
2026-04-26 10:13 8.49748 92.21475 35001 ft 535 kts 114°
2026-04-26 10:14 8.46731 92.28287 35001 ft 535 kts 114°
2026-04-26 10:14 8.43684 92.35144 35001 ft 535 kts 114°
2026-04-26 10:15 8.40639 92.41997 35001 ft 535 kts 114°
2026-04-26 10:15 8.37593 92.48852 35001 ft 535 kts 114°
2026-04-26 10:16 8.34546 92.55706 35001 ft 535 kts 114°
2026-04-26 10:16 8.31520 92.62509 35001 ft 535 kts 114°
2026-04-26 10:17 8.28470 92.69364 35001 ft 535 kts 114°
2026-04-26 10:17 8.25420 92.76212 35001 ft 535 kts 114°
2026-04-26 10:18 8.22368 92.83063 35001 ft 535 kts 114°
2026-04-26 10:18 8.19314 92.89913 35001 ft 535 kts 114°
2026-04-26 10:19 8.16259 92.96763 35001 ft 535 kts 114°
2026-04-26 10:19 8.13224 93.03565 35001 ft 535 kts 114°
2026-04-26 10:20 8.10663 93.09301 35001 ft 535 kts 114°
2026-04-26 10:20 8.07109 93.17259 35001 ft 535 kts 114°
2026-04-26 10:21 8.04050 93.24104 35001 ft 535 kts 114°
2026-04-26 10:21 8.00990 93.30948 35001 ft 535 kts 114°
2026-04-26 10:22 7.97949 93.37747 35002 ft 535 kts 114°
2026-04-26 10:22 7.94887 93.44590 35001 ft 535 kts 114°
2026-04-26 10:23 7.91824 93.51433 35001 ft 535 kts 114°
2026-04-26 10:23 7.88782 93.58284 35002 ft 535 kts 114°
2026-04-26 10:24 7.85748 93.65139 35001 ft 535 kts 114°
2026-04-26 10:24 7.82710 93.71994 35001 ft 535 kts 114°
2026-04-26 10:25 7.79669 93.78845 35001 ft 535 kts 114°
2026-04-26 10:25 7.76646 93.85650 35001 ft 535 kts 114°
2026-04-26 10:26 7.73603 93.92499 35002 ft 535 kts 114°
2026-04-26 10:26 7.70558 93.99348 35001 ft 535 kts 114°
2026-04-26 10:27 7.67512 94.06197 35001 ft 535 kts 114°
2026-04-26 10:27 7.64464 94.13047 35001 ft 535 kts 114°
2026-04-26 10:28 7.61437 94.19845 35001 ft 535 kts 114°
2026-04-26 10:28 7.58387 94.26693 35001 ft 535 kts 114°
2026-04-26 10:29 7.55338 94.33536 35001 ft 535 kts 114°
2026-04-26 10:29 7.52287 94.40381 35001 ft 535 kts 114°
2026-04-26 10:30 7.49139 94.47180 35000 ft 535 kts 116°
2026-04-26 10:30 7.45850 94.53855 35002 ft 535 kts 117°
2026-04-26 10:31 7.42534 94.60568 35001 ft 535 kts 116°
2026-04-26 10:31 7.39245 94.67299 35002 ft 535 kts 116°
2026-04-26 10:32 7.35971 94.74034 35001 ft 535 kts 116°
2026-04-26 10:32 7.32696 94.80771 35001 ft 535 kts 116°
2026-04-26 10:33 7.29418 94.87504 35001 ft 535 kts 116°
2026-04-26 10:33 7.26161 94.94190 35002 ft 535 kts 116°
2026-04-26 10:34 7.22877 95.00924 35001 ft 535 kts 116°
2026-04-26 10:34 7.19595 95.07655 35001 ft 535 kts 116°
2026-04-26 10:35 7.16334 95.14340 35001 ft 535 kts 116°
2026-04-26 10:35 7.13049 95.21069 35001 ft 535 kts 116°
2026-04-26 10:36 7.09764 95.27798 35001 ft 535 kts 116°
2026-04-26 10:36 7.06478 95.34524 35001 ft 535 kts 116°
2026-04-26 10:37 7.03189 95.41254 35001 ft 536 kts 116°
2026-04-26 10:37 6.99922 95.47936 35001 ft 536 kts 116°
2026-04-26 10:38 6.96632 95.54662 35001 ft 536 kts 116°
2026-04-26 10:38 6.93343 95.61384 35001 ft 536 kts 116°
2026-04-26 10:39 6.90050 95.68111 35001 ft 536 kts 116°
2026-04-26 10:39 6.86757 95.74834 35001 ft 536 kts 116°
2026-04-26 10:40 6.83484 95.81513 35001 ft 536 kts 116°
2026-04-26 10:40 6.80191 95.88234 35001 ft 536 kts 116°
2026-04-26 10:41 6.76895 95.94956 35001 ft 536 kts 116°
2026-04-26 10:41 6.73602 96.01677 35001 ft 536 kts 116°
2026-04-26 10:42 6.70314 96.08403 35001 ft 536 kts 116°
2026-04-26 10:42 6.67050 96.15083 35001 ft 536 kts 116°
2026-04-26 10:43 6.63762 96.21806 35001 ft 536 kts 116°
2026-04-26 10:43 6.60474 96.28525 35001 ft 536 kts 116°
2026-04-26 10:44 6.57181 96.35253 35001 ft 536 kts 116°
2026-04-26 10:44 6.53889 96.41975 35001 ft 536 kts 116°
2026-04-26 10:45 6.50658 96.48728 34996 ft 536 kts 113°
2026-04-26 10:45 6.48305 96.55826 35005 ft 535 kts 106°
2026-04-26 10:46 6.46272 96.63031 35002 ft 536 kts 106°
2026-04-26 10:46 6.44207 96.70229 35001 ft 536 kts 107°
2026-04-26 10:47 6.42119 96.77369 35002 ft 536 kts 107°
2026-04-26 10:47 6.40004 96.84553 35001 ft 536 kts 107°
2026-04-26 10:48 6.37889 96.91742 35001 ft 536 kts 107°
2026-04-26 10:48 6.35777 96.98927 35002 ft 536 kts 107°
2026-04-26 10:49 6.33664 97.06116 35001 ft 536 kts 107°
2026-04-26 10:49 6.31564 97.13254 35001 ft 536 kts 107°
2026-04-26 10:50 6.29807 97.19226 35001 ft 536 kts 107°
2026-04-26 10:50 6.27332 97.27630 35002 ft 536 kts 107°
2026-04-26 10:51 6.24156 97.38407 35001 ft 536 kts 107°
2026-04-26 10:52 6.22037 97.45595 35001 ft 536 kts 107°
2026-04-26 10:52 6.19907 97.52780 35001 ft 536 kts 108°
2026-04-26 10:53 6.16805 97.59572 35001 ft 535 kts 121°
2026-04-26 10:53 6.12424 97.65534 35002 ft 534 kts 131°
2026-04-26 10:54 6.05032 97.73925 35001 ft 535 kts 131°
2026-04-26 10:54 6.00126 97.79544 35002 ft 535 kts 131°
2026-04-26 10:55 5.95252 97.85187 35001 ft 535 kts 131°
2026-04-26 10:55 5.91205 97.89885 35001 ft 535 kts 131°
2026-04-26 10:56 5.85507 97.96492 35001 ft 535 kts 131°
2026-04-26 10:56 5.80633 98.02139 35001 ft 535 kts 131°
2026-04-26 10:57 5.75786 98.07749 35001 ft 535 kts 131°
2026-04-26 10:57 5.70909 98.13393 35001 ft 535 kts 131°
2026-04-26 10:58 5.66028 98.19042 35001 ft 535 kts 131°
2026-04-26 10:58 5.61146 98.24688 35001 ft 535 kts 131°
2026-04-26 10:59 5.56262 98.30336 35001 ft 535 kts 131°
2026-04-26 10:59 5.51383 98.35978 35002 ft 535 kts 131°
2026-04-26 11:00 5.46498 98.41624 35001 ft 535 kts 131°
2026-04-26 11:00 5.41646 98.47230 35001 ft 535 kts 131°
2026-04-26 11:01 5.37586 98.51920 35001 ft 535 kts 131°
2026-04-26 11:01 5.31875 98.58516 35001 ft 536 kts 131°
2026-04-26 11:02 5.26990 98.64156 35001 ft 536 kts 131°
2026-04-26 11:02 5.22925 98.68848 35001 ft 536 kts 131°
2026-04-26 11:03 5.17247 98.75401 35001 ft 536 kts 131°
2026-04-26 11:03 5.13157 98.80120 35001 ft 536 kts 131°
2026-04-26 11:04 5.08264 98.85763 35001 ft 536 kts 131°
2026-04-26 11:04 5.03375 98.91401 35001 ft 536 kts 131°
2026-04-26 11:05 4.98483 98.97042 35001 ft 536 kts 131°
2026-04-26 11:05 4.93594 99.02676 35001 ft 536 kts 131°
2026-04-26 11:06 4.88702 99.08313 35002 ft 536 kts 131°
2026-04-26 11:06 4.83845 99.13909 35001 ft 536 kts 131°
2026-04-26 11:07 4.78952 99.19544 35001 ft 536 kts 131°
2026-04-26 11:07 4.74059 99.25179 35001 ft 536 kts 131°
2026-04-26 11:08 4.69165 99.30814 35001 ft 536 kts 131°
2026-04-26 11:08 4.64270 99.36448 35001 ft 536 kts 131°
2026-04-26 11:09 4.59411 99.42040 35001 ft 536 kts 131°
2026-04-26 11:09 4.54521 99.47667 35001 ft 536 kts 131°
2026-04-26 11:10 4.49614 99.53294 35000 ft 536 kts 132°
2026-04-26 11:10 4.44455 99.58681 35001 ft 535 kts 135°
2026-04-26 11:11 4.39208 99.63976 35002 ft 535 kts 135°
2026-04-26 11:11 4.34004 99.69246 35001 ft 535 kts 135°
2026-04-26 11:12 4.28784 99.74573 35002 ft 535 kts 135°
2026-04-26 11:12 4.23573 99.79904 35001 ft 536 kts 135°
2026-04-26 11:13 4.18359 99.85237 35001 ft 536 kts 135°
2026-04-26 11:13 4.13180 99.90529 35001 ft 536 kts 135°
2026-04-26 11:14 4.07963 99.95857 35001 ft 536 kts 135°
2026-04-26 11:14 4.02744 100.01186 35001 ft 536 kts 135°
2026-04-26 11:15 3.97526 100.06514 35001 ft 536 kts 135°
2026-04-26 11:15 3.92343 100.11806 35001 ft 536 kts 135°
2026-04-26 11:16 3.87126 100.17131 35001 ft 536 kts 135°
2026-04-26 11:16 3.81902 100.22461 35001 ft 536 kts 135°
2026-04-26 11:17 3.76683 100.27786 35001 ft 536 kts 135°
2026-04-26 11:17 3.71462 100.33113 35002 ft 536 kts 135°
2026-04-26 11:18 3.66276 100.38402 35001 ft 536 kts 135°
2026-04-26 11:18 3.61055 100.43727 35001 ft 536 kts 135°
2026-04-26 11:19 3.55835 100.49050 35002 ft 536 kts 135°
2026-04-26 11:19 3.50611 100.54376 35001 ft 536 kts 135°
2026-04-26 11:20 3.46268 100.58797 35001 ft 536 kts 135°
2026-04-26 11:20 3.40190 100.64974 35001 ft 536 kts 135°
2026-04-26 11:21 3.34960 100.70290 35001 ft 536 kts 135°
2026-04-26 11:21 3.29729 100.75609 35001 ft 536 kts 135°
2026-04-26 11:22 3.24501 100.80924 35001 ft 536 kts 135°
2026-04-26 11:22 3.19272 100.86240 35001 ft 536 kts 135°
2026-04-26 11:23 3.14078 100.91519 35001 ft 536 kts 135°
2026-04-26 11:23 3.08845 100.96837 35001 ft 536 kts 135°
2026-04-26 11:24 3.03622 101.02153 35001 ft 536 kts 135°
2026-04-26 11:24 2.98400 101.07481 35002 ft 536 kts 135°
2026-04-26 11:25 2.93215 101.12773 35001 ft 536 kts 135°
2026-04-26 11:25 2.87994 101.18099 35001 ft 536 kts 135°
2026-04-26 11:26 2.82772 101.23425 35001 ft 536 kts 135°
2026-04-26 11:26 2.77549 101.28750 35001 ft 536 kts 135°
2026-04-26 11:27 2.72363 101.34037 35002 ft 536 kts 135°
2026-04-26 11:27 2.67140 101.39362 35001 ft 536 kts 135°
2026-04-26 11:28 2.61919 101.44684 35001 ft 536 kts 135°
2026-04-26 11:28 2.56660 101.50043 35001 ft 536 kts 135°
2026-04-26 11:29 2.51437 101.55366 35001 ft 536 kts 135°
2026-04-26 11:29 2.46211 101.60691 35001 ft 536 kts 135°
2026-04-26 11:30 2.41872 101.65111 35001 ft 536 kts 135°
2026-04-26 11:30 2.35765 101.71332 35001 ft 536 kts 135°
2026-04-26 11:31 2.30540 101.76655 35001 ft 536 kts 135°
2026-04-26 11:31 2.25348 101.81942 35001 ft 536 kts 135°
2026-04-26 11:32 2.20125 101.87261 35001 ft 536 kts 135°
2026-04-26 11:32 2.14904 101.92578 35001 ft 536 kts 135°
2026-04-26 11:33 2.09675 101.97902 35001 ft 536 kts 135°
2026-04-26 11:33 2.04450 102.03223 35001 ft 536 kts 135°
2026-04-26 11:34 1.99229 102.08553 35000 ft 536 kts 133°
2026-04-26 11:34 1.94603 102.14388 35001 ft 536 kts 124°
2026-04-26 11:35 1.90509 102.20618 35002 ft 536 kts 123°
2026-04-26 11:35 1.87106 102.25798 35001 ft 536 kts 123°
2026-04-26 11:36 1.82301 102.33014 35002 ft 536 kts 124°
2026-04-26 11:36 1.78147 102.39210 35001 ft 537 kts 124°
2026-04-26 11:37 1.73992 102.45408 35001 ft 537 kts 124°
2026-04-26 11:37 1.69867 102.51567 35002 ft 537 kts 124°
2026-04-26 11:38 1.65716 102.57765 35001 ft 537 kts 124°
2026-04-26 11:38 1.61563 102.63967 35001 ft 537 kts 124°
2026-04-26 11:39 1.57412 102.70165 35001 ft 537 kts 124°
2026-04-26 11:39 1.53258 102.76366 35002 ft 537 kts 124°
2026-04-26 11:40 1.49132 102.82526 35001 ft 537 kts 124°
2026-04-26 11:40 1.44977 102.88728 35001 ft 537 kts 124°
2026-04-26 11:42 1.28384 103.13553 35001 ft 537 kts 124°
2026-04-26 11:43 1.24270 103.19720 35001 ft 537 kts 124°
2026-04-26 11:43 1.20164 103.25874 35001 ft 537 kts 124°
2026-04-26 11:44 1.19652 103.26641 33450 ft 537 kts 123°
2026-04-26 11:44 1.17620 103.29685 33674 ft 511 kts 122°
2026-04-26 11:44 1.15699 103.32560 33898 ft 485 kts 122°
2026-04-26 11:44 1.13865 103.35308 34104 ft 469 kts 122°
2026-04-26 11:45 1.12077 103.37990 34328 ft 471 kts 122°
2026-04-26 11:45 1.10257 103.40723 34542 ft 475 kts 122°
2026-04-26 11:45 1.08416 103.43483 34695 ft 480 kts 122°
2026-04-26 11:45 1.06593 103.46303 34765 ft 485 kts 118°
2026-04-26 11:46 1.03994 103.52547 34837 ft 489 kts 105°
2026-04-26 11:46 1.02780 103.59221 34846 ft 488 kts 97°
2026-04-26 11:47 1.01948 103.65901 34838 ft 486 kts 97°
2026-04-26 11:47 1.01070 103.72578 34838 ft 483 kts 97°
2026-04-26 11:48 1.00150 103.79261 34843 ft 481 kts 97°
2026-04-26 11:48 0.99237 103.85869 34837 ft 480 kts 98°
2026-04-26 11:49 0.98341 103.92465 34848 ft 479 kts 97°
2026-04-26 11:49 0.97739 103.97391 34848 ft 479 kts 97°
2026-04-26 11:50 0.96787 104.03976 34848 ft 479 kts 98°
2026-04-26 11:50 0.95878 104.10582 34856 ft 480 kts 97°
2026-04-26 11:51 0.95004 104.17196 34854 ft 481 kts 97°
2026-04-26 11:51 0.94113 104.23824 34848 ft 482 kts 98°
2026-04-26 11:52 0.93370 104.29340 34851 ft 482 kts 98°
2026-04-26 11:52 0.92336 104.37060 34855 ft 483 kts 98°
2026-04-26 11:53 0.91446 104.43701 34859 ft 483 kts 98°
2026-04-26 11:54 0.88995 104.53416 34862 ft 482 kts 112°
2026-04-26 11:54 0.85906 104.59304 34864 ft 482 kts 120°
2026-04-26 11:55 0.82440 104.65038 34859 ft 482 kts 121°
2026-04-26 11:55 0.78983 104.70786 34854 ft 482 kts 120°
2026-04-26 11:56 0.75556 104.76551 34855 ft 482 kts 120°
2026-04-26 11:56 0.72166 104.82281 34852 ft 482 kts 120°
2026-04-26 11:57 0.68752 104.88052 34849 ft 482 kts 120°
2026-04-26 11:57 0.65336 104.93822 34850 ft 482 kts 120°
2026-04-26 11:58 0.61920 104.99589 34852 ft 482 kts 120°
2026-04-26 11:58 0.58505 105.05356 34855 ft 482 kts 120°
2026-04-26 11:59 0.55113 105.11084 34861 ft 482 kts 120°
2026-04-26 11:59 0.51695 105.16855 34860 ft 482 kts 120°
2026-04-26 12:00 0.48278 105.22626 34858 ft 482 kts 120°
2026-04-26 12:00 0.44859 105.28395 34861 ft 482 kts 120°
2026-04-26 12:01 0.41436 105.34107 34863 ft 483 kts 122°
2026-04-26 12:01 0.37318 105.39399 34865 ft 483 kts 131°
2026-04-26 12:02 0.32851 105.44419 34863 ft 484 kts 131°
2026-04-26 12:02 0.28392 105.49453 34861 ft 484 kts 130°
2026-04-26 12:03 0.23950 105.54510 34858 ft 484 kts 130°
2026-04-26 12:03 0.19544 105.59542 34858 ft 484 kts 130°
2026-04-26 12:04 0.15107 105.64611 34856 ft 484 kts 130°
2026-04-26 12:04 0.10674 105.69673 34858 ft 484 kts 130°
2026-04-26 12:05 0.06240 105.74735 34857 ft 484 kts 130°
2026-04-26 12:05 0.01840 105.79759 34857 ft 483 kts 130°
2026-04-26 12:06 -0.02588 105.84814 34860 ft 483 kts 130°
2026-04-26 12:06 -0.07012 105.89866 34860 ft 483 kts 130°
2026-04-26 12:07 -0.11436 105.94917 34860 ft 483 kts 130°
2026-04-26 12:07 -0.15831 105.99935 34858 ft 483 kts 130°
2026-04-26 12:08 -0.20255 106.04985 34861 ft 483 kts 130°
2026-04-26 12:08 -0.24680 106.10037 34861 ft 483 kts 130°
2026-04-26 12:09 -0.29107 106.15092 34862 ft 483 kts 130°
2026-04-26 12:09 -0.33536 106.20149 34860 ft 484 kts 130°
2026-04-26 12:10 -0.37934 106.25171 34856 ft 484 kts 130°
2026-04-26 12:10 -0.42365 106.30231 34861 ft 484 kts 130°
2026-04-26 12:11 -0.46797 106.35291 34861 ft 484 kts 130°
2026-04-26 12:11 -0.51233 106.40358 34861 ft 484 kts 130°
2026-04-26 12:12 -0.55671 106.45426 34861 ft 485 kts 130°
2026-04-26 12:12 -0.60084 106.50466 34863 ft 485 kts 130°
2026-04-26 12:13 -0.64541 106.55531 34863 ft 485 kts 131°
2026-04-26 12:13 -0.69027 106.60571 34862 ft 485 kts 131°
2026-04-26 12:14 -0.73515 106.65612 34859 ft 485 kts 131°
2026-04-26 12:14 -0.77993 106.70650 34861 ft 485 kts 131°
2026-04-26 12:15 -0.82440 106.75658 34861 ft 485 kts 131°
2026-04-26 12:15 -0.86915 106.80699 34864 ft 485 kts 131°
2026-04-26 12:16 -0.91394 106.85744 34864 ft 485 kts 131°
2026-04-26 12:16 -0.95877 106.90792 34862 ft 485 kts 131°
2026-04-26 12:17 -1.00327 106.95805 34864 ft 486 kts 131°
2026-04-26 12:17 -1.04811 107.00855 34864 ft 486 kts 131°
2026-04-26 12:18 -1.09294 107.05904 34866 ft 486 kts 131°
2026-04-26 12:18 -1.13779 107.10958 34867 ft 486 kts 131°
2026-04-26 12:19 -1.18266 107.16012 34867 ft 486 kts 131°
2026-04-26 12:19 -1.22757 107.21072 34864 ft 487 kts 131°
2026-04-26 12:20 -1.27247 107.26131 34867 ft 487 kts 131°
2026-04-26 12:20 -1.31709 107.31161 34866 ft 487 kts 130°
2026-04-26 12:21 -1.36202 107.36223 34866 ft 487 kts 131°
2026-04-26 12:21 -1.40656 107.41318 34865 ft 487 kts 130°
2026-04-26 12:22 -1.45064 107.46452 34867 ft 487 kts 129°
2026-04-26 12:22 -1.49473 107.51587 34865 ft 487 kts 129°
2026-04-26 12:23 -1.53858 107.56679 34870 ft 487 kts 129°
2026-04-26 12:23 -1.58277 107.61805 34869 ft 487 kts 129°
2026-04-26 12:24 -1.62697 107.66931 34872 ft 487 kts 129°
2026-04-26 12:24 -1.67116 107.72058 34869 ft 487 kts 129°
2026-04-26 12:25 -1.73714 107.79713 34872 ft 487 kts 129°
2026-04-26 12:25 -1.78130 107.84838 34871 ft 486 kts 129°
2026-04-26 12:26 -1.82546 107.89964 34871 ft 486 kts 129°
2026-04-26 12:26 -1.86962 107.95089 34872 ft 486 kts 129°
2026-04-26 12:27 -1.91378 108.00216 34871 ft 486 kts 129°
2026-04-26 12:27 -1.95795 108.05343 34871 ft 486 kts 129°
2026-04-26 12:28 -2.00208 108.10468 34872 ft 487 kts 129°
2026-04-26 12:28 -2.04624 108.15597 34876 ft 487 kts 129°
2026-04-26 12:29 -2.09044 108.20720 34873 ft 487 kts 129°
2026-04-26 12:30 -2.15649 108.28367 34873 ft 487 kts 129°
2026-04-26 12:30 -2.20073 108.33493 34871 ft 487 kts 129°
2026-04-26 12:31 -2.26708 108.41183 34872 ft 487 kts 129°
2026-04-26 12:31 -2.31133 108.46312 34873 ft 487 kts 129°
2026-04-26 12:32 -2.35534 108.51413 34875 ft 488 kts 129°
2026-04-26 12:33 -2.42175 108.59114 34875 ft 488 kts 129°
2026-04-26 12:33 -2.46609 108.64257 34877 ft 488 kts 129°
2026-04-26 12:34 -2.51042 108.69391 34880 ft 488 kts 129°
2026-04-26 12:34 -2.54735 108.73654 34872 ft 488 kts 129°
2026-04-26 12:35 -2.59900 108.79614 34880 ft 488 kts 129°
2026-04-26 12:35 -2.64346 108.84750 34875 ft 488 kts 129°
2026-04-26 12:36 -2.68793 108.89890 34876 ft 489 kts 129°
2026-04-26 12:36 -2.72489 108.94161 34878 ft 489 kts 129°
2026-04-26 12:37 -2.77688 109.00171 34877 ft 489 kts 129°
2026-04-26 12:37 -2.81385 109.04444 34875 ft 489 kts 129°
2026-04-26 12:38 -2.86553 109.10421 34876 ft 489 kts 129°
2026-04-26 12:38 -2.90276 109.14727 34879 ft 488 kts 129°
2026-04-26 12:39 -2.94683 109.19842 34876 ft 488 kts 129°
2026-04-26 12:39 -2.99109 109.24990 34883 ft 488 kts 129°
2026-04-26 12:40 -3.04251 109.30972 34881 ft 488 kts 129°
2026-04-26 12:40 -3.08674 109.36116 34882 ft 488 kts 129°
2026-04-26 12:41 -3.12349 109.40390 34883 ft 488 kts 129°
2026-04-26 12:41 -3.16773 109.45536 34882 ft 488 kts 129°
2026-04-26 12:42 -3.21195 109.50680 34885 ft 487 kts 129°
2026-04-26 12:42 -3.25615 109.55822 34888 ft 487 kts 129°
2026-04-26 12:43 -3.30033 109.60964 34887 ft 487 kts 129°
2026-04-26 12:43 -3.34418 109.66067 34883 ft 487 kts 129°
2026-04-26 12:44 -3.38832 109.71205 34886 ft 487 kts 129°
2026-04-26 12:44 -3.43245 109.76343 34886 ft 487 kts 129°
2026-04-26 12:45 -3.47660 109.81484 34884 ft 487 kts 129°
2026-04-26 12:45 -3.52041 109.86586 34887 ft 487 kts 129°
2026-04-26 12:46 -3.56456 109.91728 34883 ft 487 kts 129°
2026-04-26 12:46 -3.60866 109.96866 34882 ft 487 kts 129°
2026-04-26 12:47 -3.65277 110.02006 34885 ft 486 kts 129°
2026-04-26 12:47 -3.69686 110.07144 34884 ft 486 kts 129°
2026-04-26 12:48 -3.74064 110.12247 34891 ft 486 kts 129°
2026-04-26 12:48 -3.78467 110.17380 34887 ft 486 kts 129°
2026-04-26 12:49 -3.82873 110.22517 34889 ft 486 kts 129°
2026-04-26 12:49 -3.87277 110.27653 34885 ft 486 kts 129°
2026-04-26 12:50 -3.91679 110.32789 34890 ft 486 kts 129°
2026-04-26 12:50 -3.96052 110.37891 34889 ft 486 kts 129°
2026-04-26 12:51 -4.00299 110.43141 34885 ft 485 kts 126°
2026-04-26 12:51 -4.04373 110.48520 34885 ft 485 kts 125°
2026-04-26 12:52 -4.08453 110.53893 34888 ft 485 kts 126°
2026-04-26 12:52 -4.12565 110.59244 34891 ft 485 kts 126°
2026-04-26 12:53 -4.16661 110.64550 34894 ft 485 kts 126°
2026-04-26 12:53 -4.20787 110.69894 34890 ft 485 kts 126°
2026-04-26 12:54 -4.24913 110.75243 34891 ft 485 kts 126°
2026-04-26 12:54 -4.29038 110.80593 34892 ft 485 kts 126°
2026-04-26 12:55 -4.33162 110.85943 34888 ft 485 kts 126°
2026-04-26 12:55 -4.37283 110.91290 34891 ft 485 kts 126°
2026-04-26 12:56 -4.41376 110.96601 34893 ft 485 kts 126°
2026-04-26 12:56 -4.45495 111.01949 34891 ft 485 kts 126°
2026-04-26 12:57 -4.49611 111.07293 34893 ft 485 kts 126°
2026-04-26 12:57 -4.53730 111.12643 34892 ft 485 kts 126°
2026-04-26 12:58 -4.57839 111.17982 35138 ft 489 kts 126°
2026-04-26 12:58 -4.59919 111.20684 35417 ft 490 kts 126°
2026-04-26 12:58 -4.62001 111.23388 35669 ft 491 kts 126°
2026-04-26 12:58 -4.64095 111.26098 35847 ft 493 kts 126°
2026-04-26 12:59 -4.66204 111.28817 36022 ft 495 kts 127°
2026-04-26 12:59 -4.68320 111.31542 36181 ft 497 kts 127°
2026-04-26 12:59 -4.70444 111.34278 36358 ft 498 kts 127°
2026-04-26 12:59 -4.72575 111.37024 36517 ft 499 kts 127°
2026-04-26 13:00 -4.74709 111.39774 36679 ft 501 kts 127°
2026-04-26 13:00 -4.76820 111.42498 36787 ft 503 kts 127°
2026-04-26 13:00 -4.81125 111.48055 36881 ft 505 kts 127°
2026-04-26 13:01 -4.85425 111.53607 36885 ft 503 kts 127°
2026-04-26 13:01 -4.89704 111.59132 36890 ft 501 kts 127°
2026-04-26 13:02 -4.93933 111.64595 36887 ft 494 kts 127°
2026-04-26 13:02 -4.98077 111.69948 36888 ft 482 kts 127°
2026-04-26 13:03 -5.02182 111.75254 36902 ft 481 kts 127°
2026-04-26 13:03 -5.06283 111.80556 36897 ft 481 kts 127°
2026-04-26 13:04 -5.10383 111.85857 36900 ft 481 kts 127°
2026-04-26 13:04 -5.14463 111.91134 36897 ft 482 kts 127°
2026-04-26 13:05 -5.18570 111.96447 36898 ft 482 kts 127°
2026-04-26 13:05 -5.22682 112.01767 36896 ft 483 kts 127°
2026-04-26 13:06 -5.26796 112.07091 36891 ft 483 kts 127°
2026-04-26 13:06 -5.30911 112.12418 36895 ft 483 kts 127°
2026-04-26 13:07 -5.34999 112.17710 36893 ft 483 kts 127°
2026-04-26 13:07 -5.39112 112.23038 36901 ft 483 kts 127°
2026-04-26 13:08 -5.43226 112.28367 36894 ft 483 kts 127°
2026-04-26 13:08 -5.47339 112.33696 36895 ft 483 kts 127°
2026-04-26 13:09 -5.51449 112.39023 36892 ft 483 kts 127°
2026-04-26 13:09 -5.55531 112.44315 36893 ft 482 kts 127°
2026-04-26 13:10 -5.59637 112.49640 36895 ft 482 kts 127°
2026-04-26 13:10 -5.63743 112.54966 36889 ft 482 kts 127°
2026-04-26 13:11 -5.67847 112.60291 36896 ft 482 kts 127°
2026-04-26 13:11 -5.71956 112.65623 36894 ft 483 kts 127°
2026-04-26 13:12 -5.76064 112.70955 36892 ft 483 kts 127°
2026-04-26 13:12 -5.80144 112.76254 36891 ft 483 kts 127°
2026-04-26 13:13 -5.84254 112.81591 36907 ft 483 kts 127°
2026-04-26 13:13 -5.88360 112.86926 36893 ft 482 kts 127°
2026-04-26 13:14 -5.92460 112.92254 36895 ft 482 kts 127°
2026-04-26 13:14 -5.96557 112.97581 36887 ft 482 kts 127°
2026-04-26 13:15 -6.00627 113.02873 36893 ft 482 kts 127°
2026-04-26 13:15 -6.04728 113.08206 36909 ft 482 kts 127°
2026-04-26 13:16 -6.08634 113.13288 36908 ft 482 kts 126°
2026-04-26 13:16 -6.12735 113.18625 36889 ft 482 kts 126°
2026-04-26 13:17 -6.18852 113.26590 36896 ft 482 kts 126°
2026-04-26 13:18 -6.25264 113.34358 36913 ft 482 kts 134°
2026-04-26 13:19 -6.33187 113.40610 36893 ft 484 kts 143°
2026-04-26 13:19 -6.38697 113.44514 36910 ft 484 kts 143°
2026-04-26 13:20 -6.44149 113.48415 36894 ft 484 kts 143°
2026-04-26 13:20 -6.49622 113.52363 36891 ft 484 kts 143°
2026-04-26 13:21 -6.55092 113.56318 36894 ft 484 kts 143°
2026-04-26 13:21 -6.60561 113.60272 36899 ft 484 kts 143°
2026-04-26 13:22 -6.65991 113.64198 36907 ft 484 kts 143°
2026-04-26 13:22 -6.71456 113.68149 36912 ft 484 kts 143°
2026-04-26 13:23 -6.76919 113.72100 36913 ft 484 kts 143°
2026-04-26 13:23 -6.82381 113.76052 36908 ft 483 kts 143°
2026-04-26 13:24 -6.87841 113.80004 36896 ft 483 kts 143°
2026-04-26 13:24 -6.93263 113.83930 36895 ft 483 kts 143°
2026-04-26 13:25 -6.98717 113.87879 36893 ft 481 kts 142°
2026-04-26 13:25 -7.01336 113.89920 36781 ft 470 kts 135°
2026-04-26 13:25 -7.03583 113.92261 36407 ft 461 kts 130°
2026-04-26 13:25 -7.05683 113.94710 35593 ft 464 kts 129°
2026-04-26 13:26 -7.07764 113.97220 34695 ft 470 kts 128°
2026-04-26 13:26 -7.09877 113.99756 33885 ft 473 kts 129°
2026-04-26 13:26 -7.12012 114.02271 33234 ft 470 kts 129°
2026-04-26 13:26 -7.14121 114.04712 32798 ft 464 kts 130°
2026-04-26 13:27 -7.16238 114.07135 32353 ft 458 kts 130°
2026-04-26 13:27 -7.18339 114.09527 31823 ft 454 kts 130°
2026-04-26 13:27 -7.20426 114.11898 31264 ft 451 kts 130°
2026-04-26 13:27 -7.22502 114.14258 30721 ft 449 kts 130°
2026-04-26 13:28 -7.24565 114.16605 30216 ft 446 kts 130°
2026-04-26 13:28 -7.26584 114.18904 29707 ft 442 kts 130°
2026-04-26 13:28 -7.28613 114.21217 29157 ft 438 kts 130°
2026-04-26 13:28 -7.30622 114.23508 28633 ft 435 kts 130°
2026-04-26 13:29 -7.32616 114.25782 28116 ft 431 kts 130°
2026-04-26 13:29 -7.33926 114.27276 27790 ft 429 kts 130°
2026-04-26 13:29 -7.36554 114.30273 27123 ft 424 kts 130°
2026-04-26 13:29 -7.38497 114.32491 26640 ft 421 kts 130°
2026-04-26 13:30 -7.40428 114.34694 26168 ft 418 kts 130°
2026-04-26 13:30 -7.42321 114.36851 25705 ft 413 kts 131°
2026-04-26 13:30 -7.44495 114.38709 25089 ft 414 kts 149°
2026-04-26 13:30 -7.47185 114.39760 24539 ft 417 kts 165°
2026-04-26 13:31 -7.50060 114.40078 24107 ft 417 kts 180°
2026-04-26 13:31 -7.52930 114.39750 23703 ft 414 kts 187°
2026-04-26 13:31 -7.55763 114.39299 23212 ft 412 kts 187°
2026-04-26 13:31 -7.58584 114.38847 22720 ft 409 kts 187°
2026-04-26 13:32 -7.61385 114.38420 22282 ft 405 kts 186°
2026-04-26 13:32 -7.64162 114.38021 21838 ft 402 kts 186°
2026-04-26 13:32 -7.66885 114.37641 21412 ft 399 kts 186°
2026-04-26 13:32 -7.69618 114.37276 20965 ft 391 kts 183°
2026-04-26 13:33 -7.72309 114.37446 20352 ft 388 kts 163°
2026-04-26 13:33 -7.74796 114.38440 19857 ft 382 kts 154°
2026-04-26 13:33 -7.77216 114.39539 19411 ft 381 kts 154°
2026-04-26 13:33 -7.79634 114.40617 19029 ft 378 kts 154°
2026-04-26 13:34 -7.82037 114.41675 18653 ft 375 kts 155°
2026-04-26 13:34 -7.84420 114.42717 18313 ft 372 kts 155°
2026-04-26 13:34 -7.86781 114.43746 17999 ft 368 kts 155°
2026-04-26 13:34 -7.88334 114.44421 17793 ft 366 kts 155°
2026-04-26 13:35 -7.91452 114.45776 17390 ft 364 kts 155°
2026-04-26 13:35 -7.93738 114.46770 17100 ft 362 kts 155°
2026-04-26 13:35 -7.96046 114.47773 16775 ft 361 kts 155°
2026-04-26 13:35 -7.98358 114.48777 16404 ft 362 kts 155°
2026-04-26 13:36 -8.00674 114.49784 16043 ft 363 kts 155°
2026-04-26 13:36 -8.02996 114.50793 15695 ft 363 kts 155°
2026-04-26 13:36 -8.05318 114.51802 15297 ft 363 kts 155°
2026-04-26 13:36 -8.07626 114.52805 14926 ft 359 kts 155°
2026-04-26 13:37 -8.09906 114.53797 14557 ft 355 kts 155°
2026-04-26 13:37 -8.12161 114.54777 14192 ft 351 kts 155°
2026-04-26 13:37 -8.14360 114.55734 13845 ft 347 kts 155°
2026-04-26 13:37 -8.16569 114.56695 13450 ft 344 kts 155°
2026-04-26 13:38 -8.18753 114.57646 13082 ft 340 kts 155°
2026-04-26 13:38 -8.20914 114.58586 12734 ft 336 kts 155°
2026-04-26 13:38 -8.23053 114.59517 12378 ft 334 kts 155°
2026-04-26 13:38 -8.25200 114.60446 12045 ft 337 kts 155°
2026-04-26 13:39 -8.27353 114.61391 11956 ft 339 kts 155°
2026-04-26 13:39 -8.29517 114.62334 11907 ft 336 kts 155°
2026-04-26 13:39 -8.31640 114.63254 11750 ft 328 kts 155°
2026-04-26 13:39 -8.33670 114.64133 11674 ft 316 kts 155°
2026-04-26 13:40 -8.35655 114.64994 11590 ft 304 kts 155°
2026-04-26 13:40 -8.37565 114.65824 11476 ft 294 kts 155°
2026-04-26 13:40 -8.39418 114.66630 11339 ft 286 kts 155°
2026-04-26 13:40 -8.41230 114.67419 11090 ft 282 kts 155°
2026-04-26 13:41 -8.43029 114.68202 10778 ft 281 kts 155°
2026-04-26 13:41 -8.44824 114.68983 10465 ft 281 kts 155°
2026-04-26 13:41 -8.46613 114.69762 10162 ft 279 kts 155°
2026-04-26 13:41 -8.48392 114.70538 9881 ft 278 kts 155°
2026-04-26 13:42 -8.50138 114.71302 9564 ft 277 kts 155°
2026-04-26 13:42 -8.51900 114.72071 9239 ft 275 kts 155°
2026-04-26 13:42 -8.53653 114.72837 8932 ft 274 kts 155°
2026-04-26 13:42 -8.55373 114.73642 8599 ft 270 kts 148°
2026-04-26 13:43 -8.56882 114.74775 8198 ft 271 kts 139°
2026-04-26 13:43 -8.58296 114.76033 7904 ft 270 kts 137°
2026-04-26 13:43 -8.59689 114.77295 7625 ft 268 kts 138°
2026-04-26 13:43 -8.61075 114.78540 7362 ft 265 kts 138°
2026-04-26 13:44 -8.62439 114.79750 7047 ft 265 kts 139°
2026-04-26 13:44 -8.63830 114.80974 6723 ft 265 kts 139°
2026-04-26 13:44 -8.65214 114.82185 6455 ft 263 kts 139°
2026-04-26 13:44 -8.66600 114.83393 6133 ft 263 kts 139°
2026-04-26 13:45 -8.67978 114.84588 5920 ft 258 kts 140°
2026-04-26 13:45 -8.69334 114.85766 5628 ft 257 kts 140°
2026-04-26 13:45 -8.70674 114.86932 5447 ft 250 kts 140°
2026-04-26 13:45 -8.71973 114.88056 5326 ft 241 kts 140°
2026-04-26 13:46 -8.73228 114.89142 5177 ft 234 kts 140°
2026-04-26 13:46 -8.74449 114.90203 4931 ft 230 kts 138°
2026-04-26 13:46 -8.75363 114.91494 4473 ft 230 kts 105°
2026-04-26 13:46 -8.75467 114.93065 4100 ft 228 kts 91°
2026-04-26 13:47 -8.75470 114.94659 3825 ft 225 kts 92°
2026-04-26 13:47 -8.75488 114.96208 3672 ft 217 kts 91°
2026-04-26 13:47 -8.75502 114.97725 3409 ft 215 kts 92°
2026-04-26 13:47 -8.75513 114.99240 3105 ft 215 kts 91°
2026-04-26 13:48 -8.75479 115.00723 2895 ft 214 kts 88°
2026-04-26 13:48 -8.75415 115.02250 2391 ft 215 kts 89°
2026-04-26 13:48 -8.75353 115.03729 2101 ft 205 kts 89°
2026-04-26 13:48 -8.75296 115.05108 1919 ft 188 kts 89°
2026-04-26 13:49 -8.75246 115.06371 1708 ft 180 kts 88°
2026-04-26 13:49 -8.75196 115.07636 1503 ft 179 kts 89°
2026-04-26 13:49 -8.75147 115.08884 1277 ft 178 kts 89°
2026-04-26 13:49 -8.75098 115.10137 1053 ft 175 kts 89°
2026-04-26 13:50 -8.75052 115.11324 831 ft 162 kts 89°
2026-04-26 13:50 -8.75008 115.12393 643 ft 142 kts 90°
2026-04-26 13:50 -8.74969 115.13401 610 ft 144 kts 88°
2026-04-26 13:50 -8.74937 115.14438 279 ft 149 kts 89°
2026-04-26 13:51 -8.74889 115.15453 55 ft 140 kts 91°
2026-04-26 13:51 -8.74856 115.16402 297 ft 146 kts 90°
2026-04-26 13:51 -8.74839 115.17534 1297 ft 179 kts 91°
2026-04-26 13:51 -8.74857 115.18705 2113 ft 162 kts 93°
2026-04-26 13:52 -8.74923 115.19796 2569 ft 153 kts 95°
2026-04-26 13:52 -8.74936 115.20920 2313 ft 170 kts 88°
2026-04-26 13:52 -8.74860 115.22267 2236 ft 209 kts 88°
2026-04-26 13:52 -8.74773 115.23795 2455 ft 224 kts 88°
2026-04-26 13:53 -8.74893 115.25360 2752 ft 225 kts 111°
2026-04-26 13:53 -8.75800 115.26632 3185 ft 228 kts 143°
2026-04-26 13:53 -8.77265 115.27219 3593 ft 232 kts 174°
2026-04-26 13:53 -8.78838 115.26937 3968 ft 231 kts 202°
2026-04-26 13:54 -8.80248 115.26149 4010 ft 238 kts 213°
2026-04-26 13:54 -8.81377 115.24919 4019 ft 244 kts 242°
2026-04-26 13:54 -8.81770 115.23262 4022 ft 244 kts 267°
2026-04-26 13:55 -8.81732 115.19800 4027 ft 247 kts 270°
2026-04-26 13:55 -8.81714 115.18651 4023 ft 247 kts 269°
2026-04-26 13:55 -8.81651 115.14615 4020 ft 245 kts 269°
2026-04-26 13:56 -8.81621 115.12897 4022 ft 244 kts 270°
2026-04-26 13:56 -8.81594 115.11208 4024 ft 244 kts 270°
2026-04-26 13:56 -8.81567 115.09495 4017 ft 243 kts 270°
2026-04-26 13:56 -8.81541 115.07783 4014 ft 244 kts 269°
2026-04-26 13:57 -8.81511 115.06067 4024 ft 244 kts 270°
2026-04-26 13:57 -8.81479 115.04348 4018 ft 245 kts 270°
2026-04-26 13:57 -8.81447 115.02621 4014 ft 246 kts 269°
2026-04-26 13:57 -8.81411 115.00895 4017 ft 246 kts 269°
2026-04-26 13:58 -8.81372 114.99168 4005 ft 246 kts 269°
2026-04-26 13:58 -8.81332 114.97445 4014 ft 246 kts 270°
2026-04-26 13:58 -8.81299 114.95743 4018 ft 245 kts 270°
2026-04-26 13:58 -8.81265 114.94022 3990 ft 244 kts 270°
2026-04-26 13:59 -8.80983 114.92368 3739 ft 238 kts 298°
2026-04-26 13:59 -8.79836 114.91247 3455 ft 232 kts 341°
2026-04-26 13:59 -8.78268 114.91090 3275 ft 229 kts 13°
2026-04-26 14:00 -8.75061 114.94129 2606 ft 213 kts 87°
2026-04-26 14:00 -8.75136 114.95558 2528 ft 205 kts 97°
2026-04-26 14:00 -8.75235 114.96533 2567 ft 209 kts 96°
2026-04-26 14:01 -8.75424 114.98508 2553 ft 216 kts 96°
2026-04-26 14:01 -8.75535 115.00008 2510 ft 211 kts 90°
2026-04-26 14:01 -8.75482 115.01434 2535 ft 194 kts 88°
2026-04-26 14:01 -8.75415 115.02752 2510 ft 185 kts 88°
2026-04-26 14:02 -8.75354 115.04052 2420 ft 185 kts 89°
2026-04-26 14:02 -8.75298 115.05355 2173 ft 184 kts 89°
2026-04-26 14:02 -8.75244 115.06608 1954 ft 176 kts 89°
2026-04-26 14:02 -8.75192 115.07851 1720 ft 181 kts 89°
2026-04-26 14:03 -8.75141 115.09113 1421 ft 177 kts 88°
2026-04-26 14:03 -8.75091 115.10322 1107 ft 168 kts 90°
2026-04-26 14:03 -8.75047 115.11472 856 ft 158 kts 88°
2026-04-26 14:03 -8.75001 115.12583 614 ft 153 kts 89°
2026-04-26 14:04 -8.74959 115.13604 433 ft 140 kts 89°
2026-04-26 14:04 -8.74918 115.14593 240 ft 144 kts 90°
2026-04-26 14:04 -8.74890 115.15584 49 ft 136 kts 90°
2026-04-26 14:04 -8.74857 115.16445 34 ft 102 kts 87°
2026-04-26 14:05 -8.74835 115.16977 33 ft 49 kts 88°
2026-04-26 14:05 -8.74828 115.17149 32 ft 9 kts 88°
2026-04-26 14:05 -8.74828 115.17156 32 ft 11 kts 88°
2026-04-26 14:05 -8.74826 115.17199 32 ft 22 kts 88°
2026-04-26 14:06 -8.74788 115.17309 32 ft 11 kts 24°
2026-04-26 14:06 -8.74715 115.17313 35 ft 8 kts 357°
2026-04-26 14:06 -8.74667 115.17299 37 ft 7 kts 314°
2026-04-26 14:06 -8.74658 115.17246 37 ft 8 kts 270°
2026-04-26 14:07 -8.74659 115.17184 37 ft 10 kts 268°
2026-04-26 14:07 -8.74662 115.17113 37 ft 11 kts 268°
2026-04-26 14:07 -8.74663 115.17080 37 ft 0 kts 267°
2026-04-26 14:08 -8.74664 115.17072 37 ft 2 kts 267°
2026-04-26 14:08 -8.74665 115.17037 37 ft 7 kts 267°
2026-04-26 14:09 -8.74668 115.16984 37 ft 8 kts 267°
2026-04-26 14:09 -8.74670 115.16927 37 ft 7 kts 267°
2026-04-26 14:09 -8.74668 115.16890 37 ft 4 kts 294°
2026-04-26 14:09 -8.74654 115.16882 37 ft 2 kts 344°
2026-04-26 14:10 -8.74635 115.16877 37 ft 4 kts 343°
2026-04-26 14:10 -8.74609 115.16872 38 ft 4 kts 354°
2026-04-26 14:10 -8.74587 115.16870 38 ft 3 kts 356°
2026-04-26 14:10 -8.74565 115.16869 38 ft 3 kts 357°
2026-04-26 14:11 -8.74547 115.16868 38 ft 1 kts 357°
2026-04-26 14:11 -8.74545 115.16868 38 ft 0 kts 357°